[{"header": {"dx": 0.06612293990616946, "dy": 0.0552356325346848, "nx": 98, "ny": 59, "la1": 35.046912555036876, "la2": 31.78801023549047, "lo1": -121.43107172385933, "lo2": -114.95102361305473, "refTime": "2026041215", "parameterCategory": 1, "parameterNumber": 2}, "data": [14.75, 14.68, 14.47, 14.47, 14.23, 14.23, 14.23, 14.23, 14.31, 14.31, 13.37, 11.03, 11.87, 10.38, 9.55, 9.96, 9.2, 8.58, 8.93, 9.6, 10.0, 10.79, 10.32, 10.32, 10.41, 10.84, 10.41, 10.41, 10.46, 10.46, 10.0, 9.3, 7.59, -2.06, 0.0, 0.0, 3.25, 4.0, -0.0, -0.0, -0.0, 1.93, 5.2, 7.78, 11.17, 12.52, 13.76, 14.82, 13.7, 12.57, 9.69, 9.17, 9.64, 9.64, 10.3, 10.47, 10.85, 11.31, 11.58, 11.99, 11.77, 11.5, 10.37, 8.3, 8.3, 10.18, 11.53, 11.69, 12.74, 13.78, 13.78, 13.39, 12.21, 10.8, 8.85, 12.52, -12.52, -13.41, -13.86, -11.2, -9.2, -7.59, -7.59, -4.6, -4.6, -4.6, 0.0, 11.18, 11.62, 11.45, 10.8, 10.01, 10.01, 7.78, 3.14, -0.0, -0.0, -0.0, 14.3, 14.68, 14.47, 14.23, 14.23, 14.23, 14.66, 14.66, 14.31, 14.31, 12.94, 12.46, 11.46, 10.52, 11.28, 10.6, 9.2, 9.67, 8.93, 9.55, 10.8, 11.21, 11.21, 10.79, 10.58, 10.62, 10.18, 9.97, 10.05, 9.7, 8.22, 7.24, 7.26, 0.0, -1.58, 0.0, 0.0, 0.0, -3.8, -1.47, -0.0, 1.91, 4.81, 9.16, 12.56, 14.3, 16.37, 14.82, 13.41, 10.02, 9.69, 9.17, 9.17, 10.03, 10.38, 11.21, 10.85, 11.58, 11.58, 11.99, 11.77, 10.37, 9.17, 8.3, 9.17, 10.37, 11.5, 11.69, 13.13, 13.9, 14.56, 14.61, 13.07, 11.6, -12.96, -12.96, -12.52, -13.41, -13.86, -11.2, -9.2, -7.59, -7.59, -4.6, -4.6, -4.6, 0.0, 11.18, 11.62, 11.45, 10.8, 10.01, 10.01, 7.78, 3.14, -0.0, -0.0, -0.0, 14.23, 14.47, 14.47, 14.23, 14.23, 14.23, 14.66, 14.66, 14.75, 13.88, 12.08, 10.08, 11.51, 11.4, 9.6, 9.6, 10.0, 10.0, 10.0, 12.14, 10.38, 10.4, 10.79, 10.35, 11.62, 9.75, 9.7, 9.74, 9.46, 8.38, 5.99, 3.6, 4.12, 5.63, 6.71, 6.01, 3.6, 0.0, -0.0, -1.28, -0.0, 1.72, 8.93, 11.45, 13.91, 15.27, 16.09, 14.66, 10.09, 9.76, 9.17, 10.02, 9.69, 10.12, 10.12, 11.31, 11.31, 11.58, 11.99, 11.99, 11.16, 9.17, 8.3, 8.3, 9.84, 10.23, 10.12, 10.73, 12.16, 13.39, 13.76, 14.13, 13.58, 13.41, -12.3, -12.52, -12.52, -14.3, -13.44, -13.01, -11.28, -11.28, -9.3, -7.27, -5.7, -7.27, -7.27, 11.18, -0.0, 6.7, 6.2, 6.4, 3.25, -0.0, -0.0, -0.0, -0.0, -3.25, 14.23, 14.03, 14.51, 14.23, 14.23, 14.23, 14.75, 14.66, 14.23, 13.44, 11.88, 10.56, 11.61, 10.38, 10.0, 10.38, 11.4, 11.71, 11.84, 10.96, 10.96, 10.41, 10.84, 11.18, 10.05, 10.38, 9.75, 9.7, 9.11, 6.17, 3.07, 2.28, 2.08, 3.77, 6.14, 6.64, 7.87, 10.0, 5.98, -0.0, 2.0, 5.16, 9.89, 12.96, 13.39, 12.71, 11.54, 8.53, 8.85, 9.17, 9.36, 9.69, 10.23, 10.25, 10.25, 10.94, 11.6, 11.99, 11.99, 11.99, 9.84, 8.3, 8.01, 8.44, 8.61, 8.67, 8.72, 9.1, 10.01, 11.5, 13.05, 13.39, 13.82, -10.12, -11.71, -12.07, -12.07, -12.72, -14.84, -11.99, -10.79, -10.8, -9.67, -6.2, -5.0, -11.62, -8.22, -3.82, -0.0, -0.0, -0.0, -0.0, -6.0, -0.0, -0.0, -0.0, -0.0, -3.25, 14.25, 14.07, 14.51, 14.23, 14.23, 14.31, 14.99, 14.99, 14.51, 13.63, 11.88, 10.56, 11.18, 10.38, 9.96, 10.79, 11.46, 11.84, 12.07, 12.07, 12.52, 11.18, 10.73, 11.28, 10.18, 10.38, 9.58, 10.0, 10.0, 2.39, 1.28, 1.14, 2.52, 3.68, 6.2, 6.98, 7.9, 9.96, 11.06, 5.8, 4.17, 6.87, 8.43, 8.38, 9.17, 7.73, 7.85, 8.85, 8.85, 9.17, 9.76, 10.23, 9.88, 10.25, 10.25, 11.38, 11.6, 12.38, 12.21, 11.37, 9.17, 7.19, 7.79, 7.95, 6.57, 6.88, 7.25, 7.79, 8.56, 9.82, 12.01, 14.67, 15.22, 13.28, -13.86, -11.18, -12.52, -10.41, -10.12, -11.53, -10.79, -10.8, -9.67, -5.2, -8.22, -8.53, -6.44, -5.8, -4.98, -3.79, -3.69, -7.69, -9.17, -0.0, -0.0, -0.0, -4.24, -3.25, 14.25, 14.07, 14.07, 14.51, 14.55, 14.55, 14.99, 14.55, 14.69, 13.8, 12.02, 10.08, 10.75, 9.96, 10.96, 10.96, 11.4, 12.07, 12.07, 12.52, 12.52, 12.07, 13.15, 12.04, 10.8, 9.66, 8.22, 8.94, 7.9, 4.15, 3.3, 2.58, 2.7, 6.7, 9.48, 9.48, 9.84, 11.53, 13.24, 4.55, 3.49, 6.4, 6.63, 8.01, 6.94, 7.28, 8.15, 9.5, 9.5, 9.5, 9.08, 9.42, 9.88, 10.41, 11.6, 11.8, 12.3, 12.18, 12.45, 11.16, 7.78, 6.94, 5.55, 4.81, 5.64, 7.0, 7.59, 7.79, 8.66, 9.8, 11.68, 13.59, 14.66, 15.92, 18.78, -15.65, -12.96, -11.87, -8.53, -5.4, -11.45, -11.45, -10.04, -10.4, -11.03, -10.35, -9.77, -10.12, -11.06, -10.75, -10.12, -9.48, -9.48, -0.0, -0.0, -4.1, -4.24, -3.25, 14.25, 14.07, 14.11, 14.55, 14.55, 14.55, 14.7, 14.7, 14.25, 13.8, 12.01, 9.64, 10.62, 10.58, 12.07, 11.18, 12.07, 12.52, 12.52, 12.27, 12.71, 14.03, 14.75, 14.84, 12.16, 11.8, 12.16, 10.12, 8.1, 6.24, 5.52, 4.2, 4.4, 5.46, 8.22, 9.8, 10.12, 11.53, 9.8, 2.2, -0.0, 4.81, 6.0, 6.0, 6.6, 7.78, 9.17, 10.19, 8.53, 8.85, 8.85, 9.08, 9.88, 11.2, 11.99, 12.75, 12.71, 12.66, 12.46, 11.6, 5.6, 3.96, 3.81, 3.8, 5.81, 8.21, 9.35, 9.73, 10.58, 11.9, 13.19, 14.28, 15.12, 15.77, 16.66, 16.99, -13.19, -11.2, -10.8, -10.4, -10.8, -11.62, -11.62, -11.18, -11.02, -11.61, -14.16, -15.43, -15.34, -13.59, -11.2, -9.17, -0.0, -0.0, -3.96, -4.1, -4.24, -4.24, 13.8, 14.11, 14.11, 14.11, 14.58, 14.58, 14.55, 14.7, 14.25, 13.34, 10.96, 9.6, 10.18, 11.02, 12.52, 11.18, 12.07, 12.96, 12.96, 13.01, 12.72, 11.99, 11.16, 15.18, 15.2, 15.2, 15.18, 14.39, 10.43, 9.48, 7.24, -0.0, 3.04, 7.51, 7.9, 8.85, 9.96, 9.09, 8.22, 2.82, -0.0, -0.0, 3.16, 5.37, 7.2, 9.16, 8.24, 9.48, 7.79, 7.44, 8.22, 9.08, 9.88, 11.2, 11.99, 12.44, 12.52, 12.52, 12.07, 11.2, 4.1, 2.13, 2.9, 3.93, 6.37, 8.93, 10.83, 12.65, 14.03, 14.37, 14.7, 15.2, 15.2, 15.65, 16.09, 10.75, -6.6, -9.8, -8.85, -6.4, -7.0, -12.07, -11.18, -11.62, -11.98, -13.41, -14.3, -14.75, -13.86, -11.84, -10.8, -3.96, -0.0, -0.0, -0.0, -3.25, -4.24, -4.24, 13.8, 14.11, 14.11, 14.14, 14.58, 14.58, 14.58, 14.55, 14.07, 12.71, 11.4, 11.55, 12.96, 12.79, 12.35, 12.52, 12.96, 13.41, 13.41, 13.41, 13.41, 11.99, 11.53, 10.12, 10.37, 10.84, 9.83, 13.86, 13.99, 11.44, 6.2, -0.0, 4.81, 7.69, 9.77, 9.97, 10.6, 9.3, 7.27, -0.0, -0.0, -0.0, 3.58, 5.6, 5.98, 6.71, 6.21, 6.88, 6.85, 7.95, 9.48, 9.08, 9.53, 10.04, 10.24, 11.51, 11.62, 11.03, 10.4, 7.44, 2.48, 1.9, 2.92, 4.08, 6.4, 9.62, 12.8, 14.86, 15.65, 14.7, 14.47, 13.99, 14.23, 13.56, 14.03, 10.12, 0.0, 0.0, -4.38, -5.09, 0.0, -12.79, -10.73, -11.62, -11.62, -12.07, -12.96, -12.96, -11.06, -10.79, -5.4, -2.45, -0.0, -0.0, 2.28, -0.0, -0.0, -6.0, 13.67, 13.67, 14.14, 14.14, 14.58, 14.58, 14.58, 14.55, 14.07, 12.71, 12.45, 12.9, 12.07, 13.34, 13.72, 13.41, 14.3, 14.75, 14.31, 12.72, 12.3, 10.79, 9.8, 7.93, 7.93, 9.67, 9.39, 10.73, 12.27, 11.44, 4.66, -0.0, 7.0, 12.39, 10.04, 10.0, 10.18, 6.64, 3.68, 3.14, -0.0, 2.54, 4.32, 4.6, 5.7, 5.0, 5.64, 6.21, 7.62, 8.91, 9.17, 8.91, 8.91, 7.96, 7.24, 7.26, 11.62, 0.0, 0.0, 1.66, 1.89, 1.77, 2.43, 4.66, 6.78, 9.62, 12.46, 15.02, 14.25, 11.75, 10.65, 9.48, 10.12, 11.52, 10.12, 6.4, 0.0, 0.0, 0.0, -3.69, 0.0, 5.23, -9.48, -10.41, -10.28, -9.83, -10.22, -10.2, -10.0, -6.71, -2.37, -0.0, -0.0, -0.0, 5.15, 3.36, -0.0, -9.48, 13.67, 13.67, 14.14, 14.58, 14.58, 14.58, 14.58, 14.55, 14.26, 13.36, 12.9, 13.79, 13.79, 13.86, 14.3, 14.3, 15.65, 15.57, 15.34, 16.12, 15.59, 14.95, 13.59, 10.43, 8.18, 10.79, 10.28, 9.2, 11.6, 11.53, 9.17, 9.17, 12.07, 11.18, 11.18, 11.71, 6.45, -0.0, 2.93, 5.15, 5.31, 3.25, 2.82, 3.53, 2.6, 3.61, 5.69, 6.71, 7.9, 7.9, 7.43, 5.99, 5.81, 5.11, 4.05, 4.47, 1.89, 0.0, 12.07, -0.0, 0.86, 1.83, 2.64, 4.4, 6.09, 7.82, 8.7, 9.42, 9.77, 4.1, 1.77, 2.81, 5.63, 6.4, 0.0, 0.0, 0.0, 0.0, 0.0, 0.0, 0.0, 11.38, 14.75, 9.17, 11.62, -7.59, -8.55, -9.6, -7.59, -5.75, -4.15, -0.0, -0.0, -0.0, 9.48, 6.0, -0.0, -12.96, 13.81, 13.67, 14.14, 14.58, 14.58, 14.58, 14.58, 14.71, 14.26, 13.36, 13.34, 13.79, 14.68, 14.3, 13.41, 12.52, 12.52, 14.75, 16.04, 16.71, 15.96, 14.94, 13.99, 14.39, 11.16, 12.3, 12.52, 7.81, 11.18, 10.28, 10.73, 11.62, 11.62, 9.83, 10.73, 9.2, 4.6, 2.93, 3.04, 6.0, 5.15, 4.98, 2.37, -0.0, -0.0, 2.28, 3.39, 5.95, 6.98, 5.0, 2.71, 3.25, 3.48, 1.68, 1.78, 2.72, 5.5, 7.38, 1.83, -0.0, 0.84, 1.83, 1.83, 2.56, 3.98, 4.7, 4.74, 4.06, 4.78, 5.65, 8.05, 0.0, -2.13, -5.8, -11.6, -9.8, 13.86, 13.41, 12.52, 13.41, 13.86, 13.41, 12.35, 14.75, 12.14, 11.85, 10.09, 3.25, -5.95, -7.59, -6.44, -7.59, -7.9, 12.07, 12.52, 12.52, -12.52, -11.87, 13.81, 13.67, 14.14, 14.58, 14.58, 14.58, 14.71, 14.26, 14.26, 13.8, 13.8, 14.23, 14.68, 15.12, 15.65, 15.2, 14.3, 13.41, 12.93, 13.37, 13.23, 12.94, 12.45, 12.85, 12.72, 13.01, 13.41, 13.41, 12.07, 9.54, 10.41, 11.03, 11.62, 11.18, 10.28, -0.0, -0.0, -0.0, 3.68, 5.4, 2.45, 2.06, -0.0, -0.0, -0.0, -0.0, 1.45, 4.23, 4.4, 3.07, 1.63, 1.58, -0.0, -0.0, -0.0, 1.3, 4.47, 8.33, 3.68, -0.8, -0.0, 1.77, 0.92, 0.79, 0.81, 0.8, 1.47, 2.61, 4.65, 10.17, 11.19, 10.73, 12.16, -5.6, -10.04, -12.39, -13.86, 14.3, 13.41, 12.52, 11.62, 11.4, 11.72, 11.37, 10.23, 11.07, 11.07, 8.85, -2.6, -8.38, -7.68, -8.23, -10.6, -11.62, -12.07, -10.8, -10.04, -11.71, 13.81, 13.67, 13.7, 14.14, 14.71, 14.26, 14.26, 14.26, 14.26, 14.25, 14.25, 14.25, 14.68, 15.12, 16.01, 16.09, 16.09, 15.2, 14.75, 14.26, 14.14, 14.14, 14.31, 14.7, 14.7, 15.09, 14.03, 14.19, 13.15, 11.6, 11.18, 11.62, 12.07, 10.73, -0.0, -0.0, -0.0, -0.0, 5.7, 4.8, 2.28, -0.0, -0.0, -0.0, -2.39, -0.0, -0.0, 3.65, 2.95, 1.52, 1.52, -0.0, -1.9, -1.72, -0.0, 1.09, 4.24, 7.68, 4.89, -0.86, -0.92, -0.0, -0.0, -0.0, -0.0, -0.0, -0.0, -0.0, 4.66, 8.62, 12.87, 10.83, 12.41, 12.07, 0.0, -14.75, 7.0, 10.75, 12.81, 13.81, 13.31, 12.22, 11.72, 12.27, 8.85, 9.97, 10.12, 6.73, -0.0, -9.2, -8.18, -8.55, -10.6, -11.4, -10.73, -11.28, -11.28, -11.4, 13.81, 13.81, 13.82, 14.26, 14.26, 14.26, 14.26, 14.26, 14.26, 14.25, 14.25, 14.47, 14.47, 15.12, 16.01, 16.48, 16.54, 16.54, 16.09, 15.65, 15.15, 15.15, 15.46, 15.68, 15.27, 15.69, 15.61, 15.09, 14.56, 13.99, 13.75, 12.52, 12.07, 10.73, 7.27, -0.0, -0.0, 2.97, 7.9, 4.6, 2.6, -0.0, -0.0, -0.0, -0.0, -0.0, -0.0, 1.84, 1.47, 1.62, 1.69, -0.0, -1.93, -1.67, -0.0, -0.0, 3.11, 5.41, 5.29, -0.0, -3.97, -2.82, -1.33, -1.33, -0.0, -0.0, -0.0, 1.66, 6.0, 9.73, 12.29, 16.69, 14.08, 13.81, 14.3, 5.81, 8.28, 11.06, 12.02, 13.58, 13.97, 12.79, 12.04, 12.52, -12.07, 10.82, 9.8, 6.65, -0.0, -9.66, -9.3, -8.93, -10.27, -10.75, -10.96, -11.62, -11.62, -11.62, 13.81, 13.81, 13.82, 14.26, 14.26, 14.26, 14.26, 14.26, 14.25, 14.25, 14.68, 14.47, 14.47, 15.12, 15.58, 16.04, 16.54, 16.99, 16.99, 16.54, 16.09, 16.05, 16.05, 16.35, 16.12, 16.12, 16.12, 15.38, 14.95, 14.53, 15.15, 15.11, 13.44, 11.28, 7.27, -0.0, -0.0, 3.11, 7.9, 5.95, 2.49, 2.6, -0.0, -0.0, -0.0, -0.0, -0.0, -0.0, -0.0, -0.0, -0.0, -0.0, -0.0, -2.17, -0.0, -0.0, -0.0, 3.11, 4.58, -0.0, -3.61, -6.7, -5.52, -5.52, -3.82, -0.0, -0.0, 4.1, 7.69, 10.99, 13.28, 16.84, 18.74, 16.05, 12.01, 8.2, 9.67, 10.65, 12.57, 12.89, 13.65, 13.54, 13.19, -9.17, -11.03, -10.0, 9.17, -0.0, -0.0, -7.78, -10.01, -10.18, -10.75, -10.38, -10.18, -10.41, -11.18, -11.18, 13.81, 13.81, 14.26, 13.82, 13.82, 14.3, 14.3, 14.75, 14.25, 14.23, 14.68, 14.68, 15.12, 15.12, 15.58, 15.58, 15.65, 16.54, 16.99, 16.99, 16.54, 16.09, 16.05, 16.05, 15.93, 15.93, 15.74, 15.47, 15.55, 15.98, 16.84, 16.93, 15.27, 13.28, 7.67, 5.36, 4.2, 4.8, 4.6, 3.25, 3.39, 2.17, 3.11, 2.06, -0.0, -0.0, -0.0, -0.0, -0.0, -0.0, -0.0, -0.0, -0.0, -0.0, -0.0, -0.0, -0.0, -0.0, 3.53, -0.0, -2.19, -7.27, -6.95, -8.18, -8.18, -5.36, -2.49, -0.0, 7.19, 10.99, 13.77, 15.65, 18.73, 15.42, 12.33, 10.22, 11.25, 12.75, 14.66, 13.59, 13.26, 12.89, 12.45, 13.86, -11.6, -11.03, -11.62, -5.8, -4.98, -6.0, -8.53, -10.84, -10.96, -11.28, -11.62, -10.18, -10.84, -10.84, 13.81, 13.81, 14.3, 14.3, 13.86, 13.86, 14.3, 14.3, 14.69, 14.68, 14.68, 15.12, 15.12, 15.12, 15.14, 15.2, 15.65, 16.09, 16.54, 16.54, 16.09, 16.09, 15.61, 15.16, 15.61, 15.93, 16.37, 16.17, 16.17, 16.91, 17.14, 17.88, 17.59, 14.94, 10.61, 6.63, 5.36, 5.7, 3.39, 4.6, 3.11, 2.97, 3.8, 4.0, -0.0, -0.0, -0.0, -0.0, -0.0, 4.2, 4.2, -0.0, -0.0, -0.0, -0.0, -0.0, -0.0, -0.0, -0.0, -0.0, -2.71, -5.95, -5.7, -8.18, -7.81, -7.51, -6.17, -0.0, 8.58, 10.6, 15.39, 16.82, 18.94, 15.78, 13.46, 13.46, 14.19, 15.16, 15.76, 14.03, 12.51, 12.27, 12.56, 5.8, -11.6, -5.8, -0.0, -4.81, -4.98, -0.0, -0.0, -0.0, -11.62, -11.62, -11.62, -11.18, -11.18, -11.18, 13.81, 13.86, 13.86, 14.3, 13.86, 13.86, 14.3, 14.3, 14.75, 14.68, 14.68, 15.12, 15.57, 15.57, 15.12, 16.99, 14.75, 15.65, 15.65, 15.2, 15.65, 16.09, 15.6, 16.54, 15.2, 16.54, 13.63, 16.88, 17.1, 15.74, 17.1, 17.84, 17.88, 16.82, 13.68, 10.19, 7.56, 6.64, 6.95, 7.9, 5.7, 5.7, 4.6, 4.4, 4.4, 6.95, -0.0, -0.0, -0.0, 2.97, 3.11, 3.11, 3.11, -0.0, -0.0, -0.0, -0.0, -0.0, -0.0, -0.0, -0.0, -3.39, -3.25, -5.36, -6.64, -7.27, -6.17, -0.0, 9.83, 12.07, 13.79, 16.41, 21.54, 20.32, 17.84, 16.37, 15.93, 16.39, 16.97, 17.15, 13.88, 14.06, 13.72, 12.52, 12.96, 5.8, 3.04, 2.28, -3.14, -0.0, 6.2, 10.73, 12.07, -11.62, -12.07, 11.62, 11.62, 11.62, 13.86, 13.86, 13.86, 13.86, 13.86, 13.86, 14.3, 14.3, 14.75, 14.68, 14.68, 15.12, 15.57, 15.57, 15.58, 15.2, 14.75, 14.75, 15.65, 15.2, 16.99, 16.09, 16.04, 17.33, 16.44, 16.44, 16.44, 16.04, 16.94, 16.79, 17.26, 17.28, 17.43, 17.39, 16.39, 13.89, 11.26, 9.67, 8.82, 7.28, 7.15, 7.51, 6.64, 6.64, 7.44, 7.59, 6.95, 6.95, 4.2, 4.2, 2.97, 5.21, 2.97, 2.39, 3.32, 3.49, 3.39, 3.11, 3.25, -0.0, -0.0, -4.6, -3.11, -5.46, -5.63, -6.95, -3.25, 7.59, 10.28, 11.57, 13.41, 16.06, 22.8, 23.22, 18.55, 16.12, 14.61, 14.61, 15.61, 15.2, 15.17, 15.62, 14.72, 13.36, 12.0, 9.97, 7.59, 7.59, 3.68, -0.0, 11.6, 13.23, 12.52, 11.62, 12.07, 12.07, 11.62, 11.62, 13.86, 13.86, 13.86, 13.86, 13.86, 13.86, 13.86, 14.3, 14.75, 15.12, 14.68, 15.12, 15.57, 15.57, 15.65, 15.65, 14.75, 14.75, 12.96, 15.2, 16.99, 16.54, 16.54, 16.05, 16.94, 16.94, 16.05, 16.94, 17.39, 17.84, 17.84, 17.4, 17.4, 17.43, 16.94, 16.47, 14.31, 11.6, 10.4, 9.75, 8.72, 8.8, 7.87, 8.8, 8.4, 9.6, 6.95, 6.95, 6.64, 4.2, 6.32, 5.21, 2.97, 3.11, 4.6, 5.06, 7.27, 7.27, 7.59, -0.0, -0.0, -0.0, -3.11, -5.46, -5.21, -5.7, -5.4, 8.22, 11.02, 11.55, 12.91, 14.86, 21.31, 21.17, 16.57, 13.46, 12.01, 12.57, 13.9, 15.3, 15.65, 15.53, 14.94, 14.03, 13.19, 12.14, 11.09, 10.0, 10.92, 10.96, 11.71, 12.96, 12.52, 11.62, 12.07, 12.07, 11.03, 11.03, 13.86, 13.86, 13.86, 13.86, 13.86, 13.86, 13.86, 14.3, 14.75, 15.12, 15.11, 15.12, 15.12, 15.58, 15.65, 15.65, 15.2, 14.75, 14.75, 16.54, 16.99, 16.54, 16.09, 16.09, 16.99, 17.84, 17.39, 16.54, 16.54, 16.99, 17.43, 17.43, 17.43, 17.43, 16.99, 16.99, 15.58, 13.44, 12.04, 10.75, 9.75, 8.43, 8.05, 7.51, 8.0, 7.2, 9.2, 8.8, 8.4, 8.0, 6.32, 6.64, 4.96, 5.21, 5.46, 5.7, 6.7, 7.59, 9.6, 9.83, -0.0, -0.0, -2.39, -4.2, -2.39, -3.82, -0.0, 5.2, 6.97, 6.44, 6.65, 9.06, 16.41, 18.91, 1.33, 7.21, 9.67, 11.17, 11.73, 12.65, 14.99, 15.17, 15.12, 14.84, 14.53, 13.28, 12.39, 12.25, 11.8, 11.4, 11.62, 11.71, 12.52, 12.07, 11.62, 11.03, 11.62, 11.62, 13.86, 13.86, 13.86, 13.86, 13.86, 13.86, 14.3, 14.3, 14.75, 15.11, 15.11, 15.12, 15.65, 15.65, 15.65, 15.65, 15.2, 14.75, 15.2, 16.54, 16.99, 16.09, 15.2, 15.2, 16.54, 17.43, 17.88, 17.43, 16.99, 16.09, 16.54, 16.54, 16.54, 16.54, 16.54, 16.54, 16.06, 14.55, 12.66, 11.28, 10.32, 9.2, 8.18, 8.0, 6.9, 6.9, 9.33, 8.4, 8.0, 7.6, 8.0, 6.32, 6.32, 4.96, 5.21, 5.46, 5.7, 7.15, 9.3, 8.94, -0.0, 2.02, -0.0, -0.0, -0.0, -0.0, -0.0, -0.0, -0.0, -0.0, 1.55, 5.45, 18.42, 7.6, -7.9, 0.0, 4.89, 7.4, 8.78, 10.89, 12.65, 14.51, 15.6, 15.78, 15.16, 14.03, 13.19, 12.9, 12.79, 11.5, 9.77, 12.07, 12.07, 12.07, 11.62, 11.62, 11.62, 11.62, 13.86, 13.86, 13.86, 13.86, 13.86, 13.86, 13.86, 14.3, 14.75, 15.11, 15.11, 15.65, 15.65, 15.65, 15.65, 15.65, 15.65, 14.75, 15.65, 16.09, 16.54, 16.99, 16.09, 14.75, 15.2, 16.54, 17.43, 17.43, 17.43, 16.99, 16.09, 16.09, 16.09, 16.06, 16.06, 16.07, 16.07, 15.08, 13.28, 11.44, 10.04, 9.04, 8.37, 8.37, 7.76, 6.7, 8.18, 8.91, 8.48, 8.48, 8.48, 7.07, 7.07, 6.32, 4.96, 5.21, 4.37, 6.01, 8.94, 9.6, -0.0, 1.75, 3.49, 1.84, -0.0, 3.36, -0.0, -0.0, -0.0, -1.39, -0.0, 13.99, 21.61, 19.07, 16.48, 0.0, 2.5, 3.81, 5.18, 6.47, 9.88, 11.9, 13.44, 14.27, 14.26, 13.88, 13.02, 12.87, 12.11, 12.27, 9.84, 10.04, 12.07, 12.07, 11.62, 11.62, 11.62, 11.62, 13.86, 13.86, 13.86, 13.86, 13.86, 13.86, 13.86, 14.3, 14.75, 15.11, 15.12, 15.12, 15.65, 15.65, 15.65, 15.65, 15.65, 15.2, 15.2, 16.09, 16.09, 16.99, 16.99, 16.54, 15.65, 15.65, 16.99, 17.43, 17.43, 16.99, 16.99, 16.54, 15.65, 15.62, 16.06, 16.06, 16.07, 15.62, 14.21, 11.98, 10.02, 8.99, 8.0, 7.81, 8.34, 8.4, 7.81, 7.81, 8.22, 8.63, 8.22, 9.2, 7.07, 7.44, 6.32, 4.96, 4.96, 5.93, 6.32, 5.9, 2.39, 2.69, 3.32, 3.49, 2.71, 2.28, 1.77, 1.55, 1.39, 3.25, 10.38, 12.66, 16.1, 19.57, 18.31, 18.11, 16.48, 4.12, 4.05, 3.82, 6.6, 9.33, 12.0, 14.28, 13.34, 12.9, 12.66, 12.14, 10.91, 11.44, 11.36, 11.37, 12.52, 12.52, 11.62, 11.18, 11.18, 11.18, 13.86, 13.86, 13.86, 13.86, 13.82, 13.86, 13.86, 14.3, 14.75, 14.75, 15.2, 15.12, 15.57, 15.65, 15.65, 15.65, 15.65, 15.65, 15.65, 15.65, 15.65, 16.09, 16.99, 16.99, 16.54, 16.09, 16.09, 16.99, 17.43, 17.43, 16.99, 16.99, 16.54, 16.54, 16.06, 16.06, 16.06, 16.06, 15.54, 13.32, 11.09, 9.89, 8.43, 7.4, 8.55, 8.99, 8.8, 8.37, 8.37, 8.79, 8.79, 8.79, 8.8, 8.18, 7.44, 6.32, 6.01, 5.69, 5.36, 4.6, 5.06, 5.29, 4.6, 4.83, 3.25, 3.04, 2.62, 2.72, 2.95, 4.6, 7.59, 9.17, 10.43, 15.44, 19.21, 17.03, 18.15, 0.0, 0.0, 3.04, 4.24, 7.38, 9.12, 11.64, 12.58, 13.86, 12.89, 11.99, 9.48, 8.87, 10.01, 11.8, 11.99, 12.96, -11.18, 11.18, -0.0, -0.0, 13.81, 13.81, 13.81, 13.81, 13.81, 13.86, 13.86, 13.86, 14.3, 14.75, 15.2, 15.2, 15.65, 15.2, 15.65, 15.65, 15.65, 15.65, 15.65, 15.65, 15.65, 15.65, 16.09, 16.54, 16.54, 16.54, 16.09, 16.54, 16.99, 16.99, 16.99, 16.99, 16.99, 16.99, 16.54, 16.54, 16.54, 16.5, 16.5, 15.53, 13.83, 11.98, 10.32, 8.06, 8.42, 9.2, 9.55, 8.91, 8.37, 8.37, 8.79, 9.21, 9.04, 9.04, 7.68, 6.63, 6.01, 5.69, 5.37, 4.71, 4.83, 6.64, 7.59, 4.0, 3.39, 2.23, 2.52, 1.76, 1.69, 3.25, 6.2, 7.44, 9.8, 12.96, 15.11, 21.03, 18.31, 17.99, -7.98, 0.0, 3.44, 5.81, 7.93, 10.12, 10.73, 13.41, 13.28, 10.12, 7.69, 7.69, 9.13, 11.25, 12.27, 12.39, 12.3, 8.22, 10.0, 10.0, 13.81, 13.81, 13.81, 13.81, 13.81, 13.86, 13.86, 13.86, 14.3, 14.3, 14.75, 15.2, 15.2, 15.2, 15.2, 15.2, 15.65, 15.65, 15.65, 15.65, 15.65, 15.65, 15.65, 15.65, 16.09, 16.09, 16.09, 16.09, 16.54, 16.54, 16.54, 16.54, 16.99, 16.99, 16.99, 16.54, 16.54, 16.99, 16.95, 16.06, 14.62, 12.85, 10.93, 9.33, 9.36, 8.8, 9.55, 9.42, 9.21, 9.16, 9.16, 9.54, 9.63, 9.45, 8.73, 7.68, 6.32, 6.01, 5.69, 4.96, 6.32, 7.28, 6.95, 3.3, 2.97, 3.53, 3.53, 3.25, 2.39, 4.6, 6.5, 9.16, 10.87, 12.56, 15.12, 18.05, 21.99, 18.8, 0.0, -4.81, 0.0, 4.52, 7.82, 6.0, 6.7, 8.85, 11.99, 7.36, 8.31, 9.31, 9.8, 11.93, 13.1, 12.27, 12.39, 12.3, 11.72, 11.72, 13.81, 13.81, 13.81, 13.81, 13.81, 13.86, 13.86, 14.3, 14.3, 14.3, 14.75, 15.2, 15.65, 15.65, 15.65, 15.2, 15.2, 15.2, 15.15, 15.15, 15.59, 15.6, 15.6, 15.6, 15.6, 15.46, 15.6, 16.05, 16.54, 16.54, 16.54, 16.54, 16.54, 16.54, 16.54, 16.54, 16.54, 16.99, 16.95, 16.5, 15.51, 13.28, 11.49, 9.6, 8.79, 8.8, 9.96, 11.13, 11.4, 9.21, 9.6, 9.6, 9.21, 9.63, 9.6, 8.73, 8.58, 8.23, 5.86, 6.64, 7.76, 7.76, 4.66, 2.28, 3.61, 4.75, 3.19, 4.6, 5.46, 6.17, 7.9, 10.01, 11.44, 12.96, 13.88, 15.87, 18.67, 18.68, 18.61, 16.19, 0.0, 2.2, 9.12, 11.9, 9.17, 5.8, 12.96, 8.31, 10.12, 10.77, 11.17, 12.27, 12.51, 13.1, 12.86, 12.39, 11.6, 11.6, 13.81, 13.81, 13.81, 13.81, 13.8, 13.86, 13.86, 14.3, 14.3, 14.3, 14.3, 15.2, 15.2, 15.65, 16.09, 15.65, 15.14, 15.15, 14.99, 14.99, 15.43, 15.43, 15.18, 15.18, 15.18, 15.43, 14.99, 15.43, 16.04, 16.05, 16.09, 16.09, 16.09, 16.09, 16.54, 16.54, 16.54, 16.54, 16.94, 16.94, 15.93, 14.16, 12.37, 9.7, 7.76, 9.21, 11.3, 12.72, 12.85, 12.27, 10.96, 9.21, 9.6, 9.33, 9.4, 9.1, 8.73, 8.15, 7.59, 8.18, 7.76, 6.87, 4.21, 4.2, 2.97, -0.0, -0.0, 3.82, 5.86, 5.9, 7.9, 9.08, 12.39, 16.37, 15.12, 16.38, 16.64, 15.98, 17.79, 20.09, 18.98, 14.59, 14.75, 14.19, 13.86, 14.3, 13.32, 12.39, 11.53, 12.07, 11.9, 12.18, 12.86, 13.64, 13.1, 12.86, 12.39, 12.39, 13.36, 13.36, 13.81, 13.8, 13.86, 13.86, 13.86, 14.3, 14.3, 14.75, 14.75, 14.3, 15.2, 15.2, 15.65, 15.58, 15.59, 15.43, 15.43, 15.18, 15.18, 15.18, 15.18, 15.18, 15.18, 15.18, 14.95, 14.51, 14.95, 15.59, 16.04, 15.65, 15.65, 15.65, 16.09, 16.09, 16.54, 16.5, 16.5, 16.94, 16.37, 15.05, 12.81, 10.58, 8.82, 10.04, 12.14, 13.28, 13.7, 12.94, 11.21, 9.06, 9.06, 8.99, 8.99, 8.72, 9.1, 8.49, 8.15, 8.93, 7.81, 7.21, 6.32, 4.6, 1.75, -2.97, -2.39, 3.11, 5.7, 7.27, 6.95, 8.15, 11.6, 16.86, 20.09, 17.71, 16.92, 14.28, 14.03, 18.78, 21.46, 20.8, 18.11, 15.2, 15.53, 15.85, 15.01, 14.31, 12.58, 11.81, 11.99, 11.64, 12.03, 13.19, 13.59, 13.43, 12.62, 12.62, 13.36, 13.36, 13.36, 13.8, 13.86, 13.86, 13.86, 14.3, 14.3, 14.75, 14.75, 14.75, 14.75, 15.58, 15.58, 15.59, 15.43, 15.87, 15.61, 15.61, 15.53, 15.53, 15.09, 15.39, 15.39, 15.39, 14.95, 14.03, 15.97, 14.68, 15.58, 16.09, 16.09, 15.65, 15.65, 16.09, 16.05, 16.5, 16.5, 16.5, 16.37, 15.49, 13.7, 11.14, 10.25, 11.02, 12.51, 14.23, 13.37, 12.08, 10.12, 8.63, 8.63, 8.63, 8.72, 8.99, 8.72, 8.73, 8.73, 9.48, 9.32, 7.81, 6.01, 5.31, 3.32, -1.67, -4.14, -0.0, 7.27, 9.2, 8.18, 9.45, 12.04, 15.12, 20.0, 21.9, 15.36, 10.01, 11.6, 14.94, 18.78, 18.78, 17.43, 16.06, 16.44, 16.19, 16.2, 15.35, 13.47, 12.21, 11.77, 11.38, 10.99, 12.6, 13.19, 13.19, 12.79, 12.79, 13.41, 13.41, 13.41, 13.86, 13.86, 13.86, 13.86, 14.3, 14.3, 14.75, 14.75, 14.75, 14.75, 14.69, 15.59, 15.43, 15.43, 15.18, 15.18, 15.53, 15.53, 15.83, 15.83, 15.39, 14.95, 14.95, 14.95, 14.03, 13.59, 15.53, 14.68, 15.65, 16.09, 16.09, 16.09, 16.05, 16.05, 16.5, 16.5, 16.5, 16.5, 15.93, 14.14, 12.03, 10.69, 11.58, 12.75, 13.37, 13.37, 11.44, 9.24, 8.8, 8.63, 8.56, 8.72, 8.99, 8.34, 8.37, 9.1, 9.48, 9.38, 7.28, 6.64, 5.69, 4.37, 1.32, -1.95, -0.0, 8.8, 9.96, 9.45, 10.62, 11.62, 14.26, 18.74, 24.3, 17.81, 6.0, 10.79, 13.99, 16.5, 16.5, 16.05, 16.49, 16.86, 17.61, 17.46, 16.15, 13.99, 12.3, 11.44, 9.82, 10.55, 11.88, 12.99, 13.37, 12.96, 12.96, 13.41, 13.41, 13.41, 13.41, 13.86, 13.86, 13.86, 14.3, 14.3, 14.75, 14.75, 15.2, 14.75, 14.69, 14.99, 15.43, 15.18, 15.18, 15.09, 15.53, 15.41, 15.84, 15.78, 15.78, 14.95, 15.12, 15.12, 14.68, 14.68, 14.68, 14.75, 15.2, 15.65, 15.65, 16.09, 16.05, 16.05, 16.05, 16.5, 16.5, 16.49, 16.37, 15.02, 12.93, 11.59, 11.58, 12.31, 13.59, 13.59, 11.84, 9.79, 9.21, 9.21, 8.99, 9.42, 8.99, 9.4, 9.2, 9.2, 9.6, 9.97, 7.87, 6.32, 6.64, 5.31, 4.37, 3.6, 3.6, 9.39, 9.97, 8.18, 10.4, 11.84, 13.36, 17.46, 21.93, 19.66, 18.66, 14.79, 13.99, 15.53, 15.65, 16.48, 16.92, 16.71, 17.23, 17.48, 15.78, 13.37, 11.72, 10.8, 9.77, 9.77, 11.6, 12.87, 13.19, 12.6, 12.6, 13.41, 13.41, 13.41, 13.41, 13.86, 13.86, 13.86, 14.3, 14.75, 14.75, 15.2, 15.2, 15.2, 14.69, 14.7, 15.02, 14.81, 14.75, 14.28, 14.53, 15.41, 15.27, 15.71, 15.78, 15.57, 15.12, 15.2, 14.75, 14.75, 15.2, 15.2, 15.2, 15.2, 15.2, 15.65, 15.65, 16.05, 16.05, 16.5, 16.49, 16.49, 15.91, 15.02, 13.37, 12.03, 11.58, 12.35, 13.19, 13.15, 12.66, 10.66, 10.23, 9.79, 9.64, 9.42, 9.33, 9.75, 9.63, 9.2, 9.86, 9.86, 9.97, 7.51, 7.51, 5.63, 6.32, 5.69, 6.01, 4.96, 4.83, 5.46, 6.97, 11.12, 12.6, 14.84, 16.48, 18.39, 17.97, 19.61, 17.1, 13.97, 15.87, 16.54, 16.41, 15.61, 15.41, 15.41, 13.15, 11.99, 11.6, 11.2, 10.8, 11.2, 11.5, 11.99, 12.87, 12.79, 12.79, 13.41, 13.41, 13.41, 13.41, 13.86, 13.86, 14.3, 14.3, 14.75, 14.75, 15.2, 15.2, 15.14, 14.7, 14.55, 15.02, 14.81, 14.42, 14.28, 14.53, 14.84, 15.71, 15.71, 15.99, 15.65, 15.2, 15.2, 14.75, 14.75, 15.2, 15.2, 15.2, 14.75, 14.75, 14.75, 15.2, 15.65, 15.6, 16.05, 16.05, 16.05, 16.05, 15.46, 13.37, 12.03, 11.58, 12.03, 12.75, 13.15, 12.88, 11.55, 10.28, 9.83, 9.79, 9.64, 9.6, 9.75, 9.63, 9.2, 10.4, 10.55, 8.94, 8.43, 6.28, 6.63, 7.81, 5.69, 3.8, -0.0, 1.26, 1.76, 3.61, 9.48, 12.17, 13.89, 14.53, 15.59, 17.59, 19.83, 22.41, 19.22, 13.99, 14.75, 13.88, 12.87, 11.88, 11.88, 11.5, 11.6, 11.92, 11.92, 11.72, 12.04, 12.46, 12.3, 12.85, 12.62, 12.62, 12.96, 12.96, 13.41, 13.41, 13.86, 13.86, 14.3, 14.3, 14.75, 14.75, 15.2, 15.2, 15.14, 15.15, 14.58, 14.58, 14.81, 14.42, 14.28, 14.3, 14.84, 15.18, 15.97, 16.09, 15.65, 15.2, 15.2, 14.66, 14.66, 15.2, 15.2, 15.2, 14.75, 14.75, 14.75, 14.75, 14.75, 15.2, 15.65, 16.05, 16.05, 16.05, 15.02, 12.9, 10.25, 10.73, 11.57, 12.47, 12.71, 12.9, 12.07, 11.18, 10.28, 9.83, 9.77, 9.77, 9.97, 9.63, 9.6, 10.0, 10.55, 10.04, 8.43, 6.63, 7.07, 8.4, 6.7, -0.0, -0.0, -0.0, 1.16, 2.49, 6.94, 12.11, 14.85, 13.56, 13.99, 16.86, 20.0, 21.74, 19.93, 16.12, 15.2, 9.8, 7.69, 11.09, 10.82, 11.5, 12.33, 12.56, 12.14, 12.22, 12.22, 12.88, 12.9, 12.91, 12.92, 12.94, 12.96, 12.96, 13.41, 13.41, 13.86, 13.86, 14.3, 14.3, 14.75, 14.75, 15.14, 15.14, 15.15, 15.15, 15.02, 14.58, 14.58, 14.75, 14.28, 13.99, 13.58, 13.99, 14.84, 15.93, 15.65, 15.11, 14.66, 14.4, 14.66, 14.66, 15.2, 14.75, 14.75, 14.75, 14.75, 14.75, 14.3, 15.2, 15.2, 15.65, 15.65, 16.04, 14.7, 12.01, 9.8, 10.73, 11.62, 12.52, 13.34, 12.88, 12.44, 11.62, 10.73, 9.83, 9.83, 9.83, 9.97, 9.45, 10.0, 10.0, 10.55, 10.04, 9.2, 7.07, 6.7, 8.0, 4.71, 1.32, -0.0, -0.0, -0.0, -0.0, 4.75, 9.92, 15.5, 17.14, 13.65, 16.07, 19.22, 20.32, 15.72, 12.01, 15.59, 7.2, 4.38, 11.09, 12.39, 11.99, 12.89, 12.58, 12.66, 12.88, 12.45, 12.52, 12.52, 12.52, 12.44, 12.92, 12.96, 12.96, 12.96, 13.41, 13.86, 13.86, 14.3, 14.23, 14.68, 14.69, 15.14, 15.14, 15.15, 14.99, 15.02, 14.58, 14.37, 14.37, 14.28, 12.89, 12.02, 11.06, 13.42, 15.65, 14.84, 14.75, 14.4, 14.4, 13.96, 14.22, 14.66, 14.75, 14.75, 14.75, 14.3, 14.75, 14.3, 14.3, 15.2, 15.2, 15.65, 15.65, 14.75, 12.03, 10.68, 12.07, 13.86, 14.3, 14.22, 13.53, 12.88, 12.07, 10.73, 10.28, 9.83, 9.83, 9.97, 9.86, 10.0, 10.21, 10.55, 10.04, 7.81, 8.05, 7.15, 6.64, 5.1, 1.4, 1.2, 1.11, -0.0, -0.0, 1.44, 7.11, 11.36, 16.15, 19.07, 18.0, 16.71, 15.65, -15.65, 16.54, 17.88, -0.0, 6.8, 11.53, 12.45, 12.72, 12.46, 12.14, 12.44, 12.45, 12.52, 12.52, 12.39, 11.84, 11.21, 12.44, 12.96, 12.96, 12.96, 13.41, 13.41, 13.86, 13.79, 14.23, 14.23, 14.69, 14.69, 14.69, 15.15, 15.02, 14.58, 14.58, 14.42, 14.42, 14.37, 14.28, 12.16, 11.54, 14.61, 13.99, 12.02, 13.58, 13.81, 13.96, 13.96, 13.96, 14.22, 14.68, 14.75, 14.75, 14.3, 14.3, 14.3, 13.86, 14.3, 14.75, 14.75, 15.2, 14.3, 12.52, 11.62, 12.96, 15.2, 15.65, 14.66, 13.96, 13.53, 12.44, 10.73, 9.83, 9.83, 9.77, 9.97, 10.05, 10.05, 10.21, 10.55, 10.04, 10.73, 8.43, 7.51, 7.81, 6.01, 2.28, 1.2, -0.0, -0.85, -0.85, 1.52, 4.58, 7.11, 12.93, 17.44, 21.46, 20.55, 15.11, 11.06, 9.67, 19.67, 18.78, 16.54, 11.6, 11.6, 12.3, 12.46, 12.58, 12.42, 12.39, 12.35, 10.41, 8.85, 5.4, 5.4, 5.4, 12.52, 12.52, 12.96, 12.96, 13.41, 13.41, 13.79, 14.23, 14.23, 14.25, 14.69, 14.69, 14.7, 14.58, 14.58, 14.6, 14.6, 14.42, 14.42, 14.42, 14.61, 14.86, 15.02, 13.34, 12.65, 13.59, 13.99, 13.96, 13.96, 13.77, 13.77, 13.79, 14.3, 14.3, 14.3, 13.86, 13.86, 13.41, 13.86, 14.3, 14.3, 14.3, 13.86, 12.52, 12.07, 13.41, 14.75, 15.2, 14.23, 13.77, 13.09, 12.0, 9.77, 9.39, 9.77, 9.77, 10.41, 10.41, 10.84, 10.46, 10.4, 10.24, 9.86, 8.82, 7.87, 6.64, 4.2, 1.84, -0.0, -0.0, -0.85, -0.0, 1.76, 4.4, 7.82, 10.12, 15.96, 20.98, 22.24, 19.78, 18.24, 18.15, 18.31, 20.56, -17.43, 9.48, 11.2, 12.04, 12.04, 12.04, 11.2, 8.85, 5.6, -0.0, -0.0, -0.0, -0.0, -0.0, 12.52, 12.52, 12.96, 12.96, 13.41, 13.33, 13.79, 13.79, 13.59, 14.03, 14.07, 14.51, 14.55, 14.58, 14.58, 14.6, 14.6, 14.6, 14.62, 14.62, 15.08, 15.2, 14.97, 14.11, 14.03, 14.11, 14.4, 13.96, 13.77, 13.77, 13.34, 13.41, 13.41, 13.86, 14.3, 13.41, 13.41, 13.41, 13.41, 13.41, 13.86, 13.86, 13.41, 12.07, 11.62, 12.96, 14.3, 14.3, 13.41, 12.45, 11.78, 10.84, 9.32, 9.33, 9.77, 9.77, 10.66, 10.65, 10.84, 10.46, 10.09, 10.24, 9.66, 10.35, 8.23, 5.9, 1.54, -0.0, -0.0, -0.81, -0.0, -0.0, 2.97, 5.7, 7.9, 10.19, 11.93, 17.16, 18.95, 19.66, 18.42, 18.82, 21.59, 22.47, 20.12, -0.0, 3.96, 4.1, -0.0, -0.0, -0.0, -0.0, -0.0, -8.85, -8.53, -10.8, -10.8, -10.8, 12.52, 12.52, 12.96, 12.96, 13.34, 13.33, 13.79, 13.79, 14.03, 14.03, 14.07, 14.51, 14.55, 14.58, 14.71, 14.71, 14.6, 14.6, 14.62, 14.72, 15.2, 15.2, 15.07, 14.61, 14.42, 14.66, 14.51, 14.23, 13.79, 13.34, 13.41, 13.41, 13.41, 13.41, 13.41, 13.41, 12.96, 13.41, 13.41, 13.41, 13.41, 13.41, 12.96, 11.62, 11.18, 12.07, 13.41, 13.36, 13.36, 12.07, 11.11, 9.97, 8.67, 9.32, 9.76, 10.22, 10.22, 10.65, 11.06, 10.75, 9.3, 9.46, 9.82, 8.82, 8.53, 3.65, 1.47, -0.0, -0.0, -0.0, -0.0, 1.47, 3.49, 6.42, 5.95, 5.77, 9.48, 12.0, 15.7, 15.53, 17.25, 21.64, 24.44, 22.37, 15.49, -8.8, -5.09, -7.19, -9.17, -8.85, -9.17, -10.8, -11.2, -12.07, -12.07, -11.62, -11.62, -11.62, 12.52, 12.52, 12.96, 12.9, 12.88, 13.34, 13.34, 13.59, 14.03, 14.03, 14.07, 14.07, 14.55, 14.55, 14.58, 14.71, 14.71, 14.71, 14.72, 14.75, 14.75, 15.2, 15.05, 15.02, 14.99, 14.99, 14.55, 14.25, 13.8, 13.79, 13.41, 12.96, 12.96, 12.96, 12.96, 12.96, 12.96, 12.96, 13.41, 12.96, 12.96, 12.96, 12.96, 11.62, 11.18, 12.07, 12.96, 12.92, 12.92, 12.07, 11.11, 9.46, 8.6, 9.29, 9.76, 9.83, 10.28, 10.73, 11.02, 10.38, 8.73, 8.59, 9.27, 8.53, 6.71, 3.82, 1.75, 1.2, 1.33, -0.0, -0.0, 1.93, 1.84, 1.62, 1.52, 3.92, 8.24, 11.21, 12.0, 13.24, 15.36, 20.66, 24.95, 20.82, 12.89, -21.2, -18.21, -11.99, -12.58, -11.6, -11.2, -11.2, -12.07, -12.07, -11.62, -12.07, -12.07, -12.07, 12.52, 12.52, 12.9, 12.88, 13.33, 13.34, 13.34, 13.59, 13.59, 14.03, 14.07, 14.07, 14.51, 14.55, 14.58, 14.71, 14.71, 14.71, 14.75, 14.75, 14.75, 15.16, 15.15, 15.02, 14.99, 15.15, 14.7, 14.26, 13.8, 13.86, 13.41, 12.96, 12.96, 12.52, 12.52, 12.52, 12.52, 12.52, 12.96, 12.96, 12.96, 12.96, 12.96, 12.07, 11.18, 12.07, 12.52, 12.52, 12.47, 11.57, 10.73, 9.74, 8.6, 9.29, 9.83, 9.83, 10.28, 10.73, 11.02, 9.58, 8.38, 8.59, 8.93, 7.85, 6.16, 3.82, 2.17, -0.0, -0.0, -0.0, -0.0, -0.0, -0.0, -0.0, 1.33, 3.92, 7.85, 9.69, 10.73, 10.22, 13.14, 18.84, 22.11, 20.7, 12.64, -22.79, -18.08, -13.41, -12.96, -11.71, -11.87, -11.87, -12.07, -11.62, -11.62, -12.07, -12.07, -12.07, 12.45, 12.45, 12.9, 12.88, 12.88, 13.34, 13.59, 13.59, 13.59, 13.59, 14.07, 14.07, 14.07, 14.55, 14.55, 14.58, 14.71, 14.71, 14.75, 14.3, 14.3, 14.71, 15.15, 15.15, 15.15, 15.15, 14.75, 14.3, 13.86, 13.86, 13.41, 13.41, 12.96, 12.52, 12.52, 12.07, 12.07, 12.52, 12.52, 12.52, 12.52, 12.52, 12.52, 12.07, 11.18, 12.07, 12.52, 12.52, 12.03, 11.13, 10.73, 10.2, 9.29, 8.85, 9.39, 9.83, 10.28, 10.28, 10.18, 8.38, 7.59, 8.24, 8.22, 7.02, 5.2, 3.98, 2.28, 2.28, -0.0, -0.0, -2.49, -3.11, -1.45, -0.0, 1.28, 4.23, 6.76, 7.95, 9.17, 9.48, 11.2, 16.06, 17.86, 18.97, 14.88, -23.24, -17.67, -12.79, -12.35, -11.21, -10.8, -11.28, -11.62, -11.18, -12.07, -12.52, -12.52, -12.52, 12.45, 12.45, 12.9, 12.9, 12.9, 13.15, 13.59, 13.59, 13.59, 14.03, 14.07, 14.07, 14.51, 14.55, 14.55, 14.55, 14.71, 14.71, 14.71, 14.75, 14.75, 14.75, 15.15, 15.15, 15.2, 14.75, 14.75, 14.3, 13.86, 13.41, 13.41, 13.41, 12.96, 12.52, 12.52, 12.07, 12.07, 12.07, 12.07, 12.52, 12.52, 12.52, 12.52, 12.07, 11.62, 12.52, 12.96, 12.52, 11.62, 10.69, 10.28, 9.83, 9.74, 9.29, 9.39, 9.83, 9.83, 10.18, 8.93, 8.24, 8.24, 8.24, 7.9, 7.73, 4.58, 3.39, 3.11, 3.49, 3.11, -0.0, -1.93, -3.65, -2.82, -1.52, -0.0, 2.95, 5.54, 6.16, 7.82, 8.72, 9.8, 11.7, 14.05, 17.07, 20.19, 27.27, -13.86, -11.6, -9.48, -10.79, -10.8, -10.8, -12.14, -12.96, -12.52, -12.96, -12.96, -12.96, 12.45, 12.45, 12.9, 12.9, 12.71, 13.15, 13.59, 13.59, 13.59, 14.03, 14.07, 14.07, 14.51, 14.55, 14.55, 14.55, 14.55, 14.71, 14.71, 14.71, 14.75, 14.75, 15.2, 15.2, 14.75, 14.75, 14.75, 14.3, 13.86, 13.86, 13.41, 13.41, 12.96, 12.52, 12.52, 12.07, 12.07, 12.07, 12.07, 12.07, 12.07, 12.07, 12.07, 12.07, 12.07, 12.52, 12.96, 12.52, 11.62, 10.69, 10.28, 9.83, 9.77, 8.87, 9.39, 9.39, 9.83, 9.54, 8.8, 8.37, 8.55, 8.55, 7.59, 6.45, 4.75, 3.68, 5.29, 3.65, -0.0, -0.0, -0.0, -0.0, -1.84, -2.02, -0.0, 3.07, 4.4, 6.16, 6.7, 8.1, 9.02, 9.02, 10.87, 16.58, 25.13, 23.25, -14.31, -0.0, 9.48, -0.0, -9.8, -11.16, -13.41, -13.86, -13.41, -11.6, -11.6, -11.6, 12.45, 12.45, 12.45, 12.9, 12.71, 12.71, 13.15, 13.59, 13.59, 14.03, 14.07, 14.23, 14.23, 14.55, 14.55, 14.55, 14.55, 14.55, 14.7, 14.7, 14.71, 14.75, 14.75, 14.75, 14.75, 14.75, 14.75, 14.3, 13.86, 13.86, 13.41, 13.41, 12.96, 12.96, 12.52, 12.07, 12.07, 11.62, 11.62, 11.62, 12.07, 12.07, 12.07, 11.62, 12.07, 12.52, 12.96, 12.52, 12.07, 11.18, 10.28, 9.83, 9.83, 8.94, 9.39, 9.39, 9.33, 9.6, 9.33, 8.54, 9.2, 8.03, 7.59, 6.2, 4.75, 4.58, 3.98, -0.0, -1.45, -1.22, -0.0, -0.0, -0.0, -0.0, -0.0, 1.52, 4.4, 5.2, 6.16, 7.68, 8.1, 8.67, 10.73, 16.38, 29.28, 5.42, -8.68, -12.07, 0.0, 0.0, 14.75, -14.3, -14.3, -13.86, -13.41, -0.0, -0.0, -0.0, 12.45, 12.45, 12.45, 12.71, 12.71, 12.71, 13.15, 13.59, 13.59, 14.07, 13.8, 14.23, 14.23, 14.31, 14.55, 14.55, 14.55, 14.55, 14.55, 14.7, 14.7, 14.7, 14.75, 14.7, 14.7, 14.75, 14.3, 14.3, 13.86, 13.41, 13.41, 12.96, 12.91, 12.92, 12.52, 12.07, 12.07, 11.62, 11.62, 11.62, 11.62, 11.62, 11.62, 11.62, 11.62, 11.62, 12.07, 12.07, 12.07, 11.18, 10.68, 10.28, 9.83, 9.39, 8.94, 8.94, 9.34, 9.21, 9.16, 9.54, 8.8, 8.82, 7.27, 6.2, 5.2, 4.75, 2.37, -0.0, -2.82, -3.11, -1.62, -0.0, -0.0, -0.0, -0.0, 1.52, 3.07, 5.0, 5.0, 6.16, 7.41, 8.85, 11.07, 24.63, 28.15, -5.1, -12.01, -11.6, -11.6, -9.8, -12.27, -10.43, 14.75, 14.3, -0.0, -0.0, -0.0, -0.0, 12.27, 12.27, 12.27, 12.27, 12.71, 12.71, 13.15, 13.15, 13.59, 13.37, 13.8, 13.8, 14.31, 14.31, 14.55, 14.55, 14.55, 14.55, 14.55, 14.99, 14.7, 14.7, 14.7, 14.7, 14.7, 14.26, 14.3, 14.3, 13.86, 13.41, 13.41, 12.96, 12.91, 12.47, 12.52, 12.07, 12.07, 11.62, 11.62, 11.18, 11.62, 11.62, 11.62, 11.62, 11.18, 11.18, 11.62, 11.62, 11.62, 11.18, 10.68, 10.28, 9.83, 9.83, 9.39, 8.94, 8.9, 8.9, 9.16, 9.03, 8.91, 8.43, 7.27, 5.52, 5.0, 3.68, 1.71, -1.39, -3.82, -5.9, -4.4, -2.49, -0.0, -0.0, -0.0, -0.0, 1.39, 2.71, 5.0, 4.8, 5.92, 8.32, 19.41, 21.79, 23.64, -20.16, -16.76, -13.59, -13.41, -13.32, -13.7, -10.43, 0.0, 14.3, -0.0, 3.47, 3.47, 3.47, 12.27, 12.27, 12.27, 12.27, 12.27, 12.71, 13.15, 13.59, 13.27, 13.37, 13.37, 13.8, 14.31, 14.31, 14.31, 14.31, 14.55, 14.55, 14.55, 14.99, 14.99, 14.7, 14.7, 14.7, 14.26, 14.25, 14.25, 13.86, 13.86, 13.41, 13.41, 12.96, 12.96, 12.52, 12.52, 12.07, 12.07, 11.62, 11.62, 11.18, 11.18, 11.62, 11.62, 11.18, 11.18, 10.73, 10.73, 10.73, 10.73, 10.69, 10.68, 10.28, 9.83, 9.83, 9.83, 9.39, 8.94, 8.9, 8.89, 9.29, 8.91, 8.05, 6.95, 5.29, 5.75, 4.32, 1.91, -0.0, -4.8, -4.4, -4.4, -2.49, -0.0, -0.0, -0.0, -1.69, -0.0, 1.39, 3.92, 4.4, 5.77, 7.24, 16.55, 21.92, 24.63, -15.17, -15.65, -13.41, -13.86, -14.19, -13.99, -13.19, 15.2, -0.0, 3.47, 6.4, 6.4, 6.4, 12.27, 12.27, 12.27, 12.27, 12.27, 12.27, 12.71, 12.85, 12.94, 12.94, 13.37, 13.8, 13.88, 14.31, 14.31, 14.31, 14.31, 14.55, 14.55, 14.99, 14.99, 15.14, 15.14, 14.7, 14.3, 14.3, 14.25, 13.8, 13.8, 13.36, 12.92, 12.96, 12.52, 12.52, 12.52, 12.07, 12.07, 11.62, 11.18, 11.18, 11.18, 11.18, 11.18, 11.18, 10.73, 10.73, 10.73, 10.73, 10.28, 10.25, 10.24, 10.24, 10.28, 9.83, 9.83, 9.39, 9.39, 8.94, 8.94, 8.85, 8.72, 8.05, 6.95, 6.17, 6.44, 5.0, 2.19, -0.0, -1.69, -2.39, -2.49, -2.02, -0.0, -0.0, -0.0, -3.82, -3.65, -0.0, 1.76, 3.39, 5.0, 10.18, 13.58, 21.59, 25.74, 31.49, -15.36, -12.96, -13.86, -14.55, -14.9, -13.59, -0.0, 6.8, 6.6, 6.4, 6.4, 6.4, 12.27, 12.27, 12.27, 12.27, 12.71, 12.71, 12.42, 12.42, 12.94, 12.94, 13.37, 13.8, 13.88, 14.31, 14.31, 14.31, 14.31, 14.55, 14.55, 14.55, 14.99, 14.95, 15.14, 14.69, 14.25, 14.25, 14.25, 13.8, 13.36, 13.36, 12.91, 12.47, 12.52, 12.52, 12.02, 12.07, 12.07, 11.62, 11.62, 11.18, 11.18, 11.18, 11.13, 11.13, 10.68, 10.68, 10.73, 10.28, 10.28, 10.25, 10.24, 10.28, 10.28, 9.83, 9.83, 9.83, 9.39, 8.94, 8.94, 8.82, 8.3, 8.05, 7.87, 6.17, 7.27, 5.95, -0.0, -0.0, -0.0, -0.0, -2.49, -2.1, -1.76, -1.84, -1.76, -3.82, -5.9, -1.93, -0.0, 2.1, 6.71, 10.04, 13.7, 18.41, 24.31, 30.79, 19.6, -14.18, -13.19, -13.59, -15.2, -0.0, 4.3, 7.76, 7.82, 8.18, 8.18, 8.18, 12.27, 12.27, 12.27, 12.27, 12.71, 12.42, 12.42, 12.94, 12.94, 12.94, 13.37, 13.37, 13.88, 14.31, 14.31, 14.31, 14.31, 14.55, 14.55, 14.99, 14.99, 14.95, 14.95, 14.51, 14.25, 14.25, 13.8, 13.8, 13.36, 12.91, 12.91, 12.47, 12.47, 12.02, 12.02, 12.01, 11.62, 11.62, 11.62, 11.18, 11.12, 11.12, 11.12, 10.68, 10.68, 10.68, 10.68, 10.28, 10.28, 10.24, 10.24, 9.79, 10.28, 9.83, 9.83, 9.83, 9.39, 9.39, 8.94, 8.38, 8.77, 8.0, 7.51, 6.95, 8.18, 4.4, -0.0, -0.0, -0.0, -0.0, -2.6, -4.8, -3.98, -4.15, -5.52, -6.17, -5.9, -6.64, -0.0, 3.39, 9.3, 11.03, 13.77, 16.94, 21.9, 24.59, 25.26, 17.1, 0.0, 13.99, 14.84, 9.49, 8.29, 7.6, 7.82, 8.46, 8.46, 8.46, 12.27, 12.27, 12.27, 12.27, 12.42, 12.42, 12.42, 12.94, 12.94, 12.94, 13.37, 13.37, 13.88, 13.88, 14.31, 13.88, 13.8, 14.51, 14.51, 14.51, 14.95, 14.95, 14.95, 14.95, 14.07, 13.8, 13.79, 13.79, 13.36, 12.91, 12.91, 12.47, 12.47, 12.01, 12.01, 12.01, 12.01, 11.57, 11.57, 11.12, 11.12, 11.12, 10.68, 10.68, 10.68, 10.68, 10.24, 10.24, 10.28, 10.24, 10.24, 9.79, 9.83, 9.83, 9.83, 9.39, 9.39, 9.39, 9.39, 8.94, 8.33, 7.6, 8.0, 7.44, 8.91, 6.64, -0.0, -0.0, -0.0, -0.0, -2.39, -3.39, -4.8, -6.17, -7.27, -8.23, -7.27, -6.95, -4.4, -0.0, 9.3, 11.4, 13.33, 16.5, 20.56, 22.35, 22.8, 20.96, 19.57, 16.54, 15.27, 13.02, 10.39, 9.23, 8.97, 9.77, 9.77, 9.77, 12.27, 12.27, 11.99, 11.99, 11.99, 12.42, 12.42, 12.51, 12.94, 12.94, 13.37, 13.37, 13.8, 13.8, 13.8, 13.8, 13.8, 13.8, 14.51, 14.51, 14.51, 14.95, 14.95, 14.51, 14.07, 13.79, 13.79, 13.34, 13.36, 12.91, 12.91, 12.47, 12.01, 12.01, 12.01, 12.01, 12.01, 11.57, 11.57, 11.57, 11.12, 11.12, 11.12, 10.68, 10.68, 10.68, 10.24, 10.24, 10.24, 10.24, 9.79, 9.79, 9.83, 9.83, 9.83, 9.39, 9.39, 8.94, 9.39, 8.94, 8.77, 8.24, 8.24, 8.67, 8.94, 6.64, -0.0, -6.64, -0.0, -0.0, -0.0, -0.0, -3.53, -7.9, -6.95, -9.2, -8.55, -7.27, -4.6, -0.0, 10.0, 11.84, 13.33, 16.05, 20.01, 21.81, 20.53, 20.07, 18.59, 18.36, 15.81, 14.52, 12.29, 11.06, 11.06, 10.39, 10.39, 10.39, 12.08, 12.08, 12.42, 12.42, 12.42, 12.42, 12.42, 12.51, 12.51, 12.94, 12.94, 13.37, 13.8, 13.8, 13.8, 13.8, 13.8, 14.07, 14.07, 14.51, 14.51, 14.51, 14.51, 14.51, 14.25, 13.79, 13.79, 13.34, 13.34, 12.9, 12.9, 12.45, 12.01, 12.01, 12.01, 11.57, 11.57, 11.57, 11.57, 11.12, 11.12, 11.12, 11.12, 10.68, 10.68, 10.68, 10.68, 10.24, 10.24, 10.24, 9.79, 9.79, 9.83, 9.83, 9.39, 9.39, 9.39, 8.94, 8.94, 8.94, 8.94, 8.49, 8.49, 8.49, 8.94, 8.94, 8.94, -0.0, -0.0, -0.0, -0.0, -0.0, -0.0, -5.2, -7.27, -9.2, -9.75, -7.27, -4.6, -0.0, 5.0, 11.4, 12.86, 15.15, 19.1, 20.64, 19.95, 19.3, 18.91, 17.52, 15.68, 14.57, 12.7, 12.7, 12.36, 11.88, 11.88, 11.88, 12.08, 12.08, 12.42, 12.42, 12.42, 12.42, 12.42, 12.51, 12.51, 12.94, 12.94, 13.37, 13.8, 13.8, 13.8, 13.8, 13.8, 14.07, 14.07, 14.51, 14.51, 14.51, 14.51, 14.51, 14.25, 13.79, 13.79, 13.34, 13.34, 12.9, 12.9, 12.45, 12.01, 12.01, 12.01, 11.57, 11.57, 11.57, 11.57, 11.12, 11.12, 11.12, 11.12, 10.68, 10.68, 10.68, 10.68, 10.24, 10.24, 10.24, 9.79, 9.79, 9.83, 9.83, 9.39, 9.39, 9.39, 8.94, 8.94, 8.94, 8.94, 8.49, 8.49, 8.49, 8.94, 8.94, 8.94, -0.0, -0.0, -0.0, -0.0, -0.0, -0.0, -5.2, -7.27, -9.2, -9.75, -7.27, -4.6, -0.0, 5.0, 10.0, 11.61, 14.07, 16.66, 19.02, 19.41, 18.38, 18.43, 17.19, 15.74, 14.28, 14.11, 13.46, 12.56, 12.73, 12.73, 12.73]}, {"header": {"dx": 0.06612293990616946, "dy": 0.0552356325346848, "nx": 98, "ny": 59, "la1": 35.046912555036876, "la2": 31.78801023549047, "lo1": -121.43107172385933, "lo2": -114.95102361305473, "refTime": "2026041215", "parameterCategory": 1, "parameterNumber": 3}, "data": [0.0, 1.47, 2.89, 2.89, 3.88, 3.88, 3.88, 3.88, 3.58, 3.58, 3.65, 3.68, 3.96, 4.15, 3.82, 3.98, 5.52, 6.44, 5.95, 4.8, 5.0, 4.32, 2.95, 2.95, 2.6, 2.71, 2.6, 2.6, 3.92, 3.92, 5.0, 6.2, -7.59, -8.24, -8.94, -9.39, -9.75, -8.0, 7.6, 8.05, 8.49, 9.64, 10.4, 10.37, 8.94, 9.39, 10.7, 11.53, 12.18, 10.05, 8.61, 9.17, 8.67, 8.67, 9.27, 8.38, 7.89, 7.2, 6.76, 6.0, 6.42, 6.9, 7.78, 9.96, 9.96, 8.73, 7.69, 7.44, 7.43, 7.42, 7.42, 6.18, 5.55, 5.4, 8.85, 0.0, -0.0, -0.0, -0.0, -5.6, -4.6, -7.59, -7.59, -9.2, -9.2, -9.2, -10.73, 0.0, 0.0, 3.82, 5.4, 7.51, 7.51, 10.37, 12.58, 12.96, 12.96, 13.41, 0.0, 1.47, 2.89, 3.88, 3.88, 3.88, 4.0, 4.0, 3.58, 3.58, 3.53, 3.56, 1.91, 2.1, 2.82, 3.53, 4.6, 6.45, 5.95, 3.82, 5.4, 4.48, 4.48, 4.32, 1.76, 1.52, 1.45, 2.49, 3.77, 5.54, 8.22, 9.66, 9.08, -7.6, -7.89, -8.49, -8.05, -8.05, 7.6, 8.82, 9.83, 11.46, 12.04, 10.99, 10.76, 10.73, 10.91, 11.53, 10.43, 8.91, 8.61, 9.17, 9.17, 8.21, 8.49, 8.15, 7.89, 6.76, 6.76, 6.0, 6.42, 7.78, 9.17, 9.96, 9.17, 7.78, 6.9, 7.44, 7.66, 8.11, 7.84, 6.74, 5.81, 5.8, -0.0, -0.0, -0.0, -0.0, -0.0, -5.6, -4.6, -7.59, -7.59, -9.2, -9.2, -9.2, -10.73, 0.0, 0.0, 3.82, 5.4, 7.51, 7.51, 10.37, 12.58, 12.96, 12.96, 13.41, 1.42, 2.89, 2.89, 3.88, 3.88, 3.88, 4.0, 4.0, 3.69, 3.47, 3.29, 2.02, 1.64, 2.28, 4.8, 4.8, 5.0, 5.0, 5.0, 3.04, 4.15, 5.2, 4.32, 6.21, 4.65, 3.25, 1.62, 1.39, 2.7, 6.7, 10.48, 11.99, 11.34, 7.51, 0.0, -6.01, -7.2, -8.94, 9.39, 10.2, 11.62, 13.75, 13.39, 13.74, 13.91, 13.09, 12.07, 11.0, 8.83, 8.54, 9.17, 8.91, 8.61, 8.1, 7.36, 7.2, 7.2, 6.76, 6.0, 6.0, 7.44, 9.17, 9.96, 9.96, 8.44, 7.96, 8.1, 8.78, 9.12, 8.93, 9.17, 9.42, 7.76, 0.0, -4.1, -0.0, -0.0, -0.0, -3.36, -3.25, -2.82, -2.82, -6.2, -7.27, -8.55, -7.27, -7.27, 0.0, 12.07, 10.04, 12.39, 12.79, 13.01, 13.41, 12.96, 12.96, 12.96, 13.01, 1.42, 2.81, 2.64, 3.88, 3.88, 3.88, 3.69, 4.0, 3.88, 3.36, 2.16, 1.92, 3.32, 4.15, 5.0, 4.15, 2.28, 2.93, 2.37, 2.19, 2.19, 2.6, 2.71, 3.19, 3.77, 4.15, 3.25, 1.62, 2.28, 8.23, 10.75, 11.4, 11.44, 10.05, 7.68, 6.64, 5.9, 5.0, 9.97, 13.41, 15.97, 18.05, 16.48, 12.96, 11.16, 10.59, 9.89, 8.53, 8.85, 9.17, 8.32, 8.61, 7.96, 7.18, 7.18, 6.96, 5.8, 6.0, 6.0, 6.0, 8.44, 9.96, 9.62, 9.84, 9.69, 9.64, 9.59, 9.85, 10.84, 10.61, 10.87, 11.16, 9.87, -10.12, -2.93, -0.0, -0.0, -4.24, -4.95, -6.0, -4.32, -5.4, -6.45, -9.3, -10.0, -0.0, 8.22, 11.45, 12.52, 13.86, 15.65, 14.75, 11.99, 12.96, 12.96, 12.96, 13.41, 13.01, 1.3, 2.56, 2.64, 3.88, 3.88, 3.58, 2.5, 2.5, 2.64, 2.48, 2.16, 1.92, 3.19, 4.15, 3.98, 4.32, 1.91, 2.37, 0.0, 0.0, 0.0, 0.0, 0.0, 2.82, 3.39, 4.15, 5.75, 5.0, 5.0, 9.54, 10.2, 10.22, 11.35, 11.03, 9.3, 8.73, 7.9, 8.3, 11.06, 17.39, 18.76, 16.02, 12.65, 10.47, 9.17, 9.27, 9.16, 8.85, 8.85, 9.17, 8.54, 7.96, 7.68, 7.18, 7.18, 6.21, 5.8, 5.16, 5.55, 7.11, 9.17, 10.79, 10.91, 11.35, 12.2, 12.03, 11.28, 10.91, 10.9, 11.6, 12.01, 12.42, 12.46, 13.28, -0.0, -0.0, -0.0, -6.94, -10.12, -7.69, -4.32, -5.4, -6.45, -10.4, -8.22, 8.53, 10.73, 11.6, 12.45, 15.18, 14.75, 11.53, 9.17, 12.96, 12.96, 12.96, 12.72, 13.01, 1.3, 2.56, 2.56, 2.64, 2.43, 2.43, 2.5, 2.43, 1.34, 1.25, 1.09, 2.02, 3.07, 3.98, 2.19, 2.19, 2.28, 0.0, 0.0, 0.0, 0.0, 0.0, 2.63, 4.81, 5.4, 7.24, 8.22, 6.71, 7.9, 10.38, 8.79, 9.03, 9.46, 10.04, 9.48, 9.48, 8.44, 7.69, 11.35, 18.21, 15.71, 12.79, 10.61, 9.62, 10.41, 10.19, 9.5, 8.15, 8.15, 8.15, 7.95, 8.24, 7.68, 6.94, 5.8, 5.36, 4.1, 4.43, 4.98, 7.44, 10.37, 10.41, 12.21, 13.47, 14.11, 13.99, 12.65, 10.91, 10.24, 9.8, 9.73, 10.19, 11.0, 9.95, 0.0, -0.0, -0.0, -3.96, -8.53, -10.8, -3.82, -3.82, -6.7, -5.2, 3.68, 6.21, 7.82, 10.12, 11.06, 10.75, 10.12, 9.48, 9.48, 12.52, 12.52, 12.3, 12.72, 13.01, 1.3, 2.56, 2.35, 2.43, 2.43, 2.43, 1.23, 1.23, 1.3, 1.25, 1.2, 1.93, 1.52, 1.76, 0.0, 0.0, 0.0, 0.0, 0.0, -2.45, -2.54, -2.81, 0.0, 4.95, 9.12, 8.85, 9.12, 10.12, 10.12, 8.73, 9.2, 8.4, 8.8, 8.18, 8.22, 9.8, 10.12, 7.69, 9.8, 13.23, 14.3, 12.04, 11.99, 11.99, 13.19, 10.37, 9.17, 7.28, 8.53, 8.85, 8.85, 7.95, 7.68, 5.6, 3.6, 2.32, 2.54, 2.81, 3.56, 5.8, 11.2, 11.87, 13.32, 14.25, 14.53, 14.36, 13.1, 11.68, 9.62, 7.93, 6.6, 5.19, 5.5, 6.31, 3.33, 0.0, -6.6, -5.6, -5.4, -5.2, -5.4, -0.0, -0.0, -0.0, 1.84, 3.32, 2.02, 2.57, 3.07, 2.72, 5.6, 9.17, 13.41, 12.96, 11.87, 12.3, 12.72, 12.72, 1.25, 2.35, 2.35, 2.35, 2.24, 2.24, 2.43, 1.23, 1.3, 1.33, 2.19, 2.13, 1.45, 1.84, 0.0, 0.0, 0.0, 0.0, 0.0, -3.25, -4.24, -6.0, -7.44, -3.79, 0.0, 0.0, 3.79, 7.2, 10.43, 9.48, 9.66, 12.07, 12.14, 10.01, 7.9, 8.85, 8.3, 6.5, 8.22, 11.28, 12.96, 13.86, 15.78, 16.12, 14.39, 10.99, 9.42, 9.48, 10.91, 11.16, 8.22, 7.95, 7.68, 5.6, 3.6, 1.38, 0.0, 0.0, 0.0, 5.6, 12.3, 12.79, 13.55, 13.75, 13.8, 13.39, 11.91, 9.2, 5.85, 3.32, 1.23, 0.0, 0.0, 0.0, 0.0, -10.75, -13.19, -9.8, -8.85, -12.79, -13.99, -0.0, -0.0, -0.0, 1.5, -0.0, -0.0, -0.0, -0.0, 2.37, 5.4, 11.87, 13.41, 13.41, 13.41, 13.01, 12.72, 12.72, 1.25, 2.35, 2.35, 2.18, 2.24, 2.24, 2.24, 2.43, 2.56, 2.54, 2.28, 1.28, 0.0, 2.13, 2.06, 0.0, 0.0, 0.0, 0.0, 0.0, 0.0, -6.0, -7.69, -10.12, -7.78, -2.71, 0.0, 0.0, 7.0, 8.58, 12.39, 15.2, 14.42, 11.53, 7.82, 5.98, 3.53, 6.2, 7.27, 10.28, 12.96, 14.75, 14.31, 11.2, 9.97, 8.94, 10.87, 12.03, 12.56, 11.35, 9.48, 7.95, 7.41, 6.7, 6.4, 1.64, 0.0, -3.68, -5.2, 11.16, 13.63, 13.28, 12.63, 13.25, 12.79, 11.76, 10.47, 6.19, 0.0, -1.23, -2.89, -4.66, -5.34, -5.81, -2.81, -10.12, -14.75, -14.75, -13.15, -15.27, -16.54, -6.4, -0.0, -0.0, -0.0, -0.0, -0.0, -0.0, 1.58, 4.32, 10.8, 12.27, 12.52, 13.86, 13.67, 13.86, 13.86, 11.99, 2.28, 2.28, 2.18, 2.18, 2.24, 2.24, 2.24, 2.43, 2.56, 2.54, 1.25, 1.29, 0.0, 1.33, 1.96, 0.0, 0.0, 0.0, -3.58, -4.24, -4.1, -7.19, -9.8, -11.9, -11.9, -6.45, 0.0, 0.0, 8.18, 8.58, 13.99, 16.54, 13.99, 6.2, 6.7, 5.0, 3.39, 6.64, 11.03, 12.58, 12.96, 12.71, 10.79, 9.2, 8.55, 10.0, 10.16, 10.35, 10.48, 10.02, 9.17, 10.02, 10.02, 10.23, 9.66, 9.08, 0.0, -11.62, -11.62, 13.31, 14.18, 14.19, 14.55, 13.05, 12.6, 11.76, 10.19, 6.93, -1.3, -7.34, -8.87, -9.48, -10.12, -9.22, -10.12, -12.79, -15.2, -14.3, -12.52, -14.75, -17.43, -15.69, -9.48, -2.6, -0.0, -0.0, 1.14, 1.28, 5.0, 8.94, 11.84, 12.07, 12.96, 13.41, 12.87, 13.44, 13.86, 9.48, 2.28, 2.28, 2.18, 2.24, 2.24, 2.24, 2.24, 2.43, 1.19, 1.21, 1.29, 1.38, 1.38, 0.0, 0.0, 0.0, 0.0, -1.56, -3.07, -5.37, -7.8, -8.97, -10.19, -10.43, -12.27, -7.19, 0.0, 4.6, 5.8, 7.69, 9.17, 9.17, 0.0, 0.0, 0.0, 2.93, 9.67, 11.62, 11.71, 12.87, 13.28, 13.01, 11.28, 10.6, 10.41, 9.63, 9.1, 8.94, 7.9, 7.9, 10.62, 12.99, 13.56, 14.31, 14.18, 14.53, 15.08, -13.41, 0.0, 12.96, 13.83, 14.64, 14.06, 14.08, 13.92, 13.03, 13.54, 14.13, 12.22, -12.3, -12.39, -12.66, -13.15, -12.79, -13.86, -13.86, -14.3, -12.96, -12.52, -13.41, -15.2, -11.38, -3.69, -9.17, 0.0, 7.59, 5.7, 4.8, 7.59, 9.58, 10.38, 12.07, 12.52, 12.96, 9.48, 11.99, 13.41, -0.0, 1.15, 2.28, 2.18, 2.24, 2.24, 2.24, 2.24, 1.13, 1.19, 1.21, 1.33, 1.38, 1.47, 0.0, 0.0, 0.0, 0.0, 0.0, -1.34, -3.04, -4.35, -5.98, -7.0, -7.2, -7.44, -4.1, 0.0, 1.95, 0.0, 0.0, 0.0, 0.0, 0.0, 0.0, 0.0, 4.6, 9.2, 11.71, 12.14, 11.99, 12.87, 12.45, 11.84, 11.18, 10.28, 9.11, 10.18, 8.93, 8.73, 10.0, 11.76, 13.01, 14.79, 16.0, 15.99, 16.31, 15.6, 13.29, 12.83, 12.96, 14.28, 14.64, 14.64, 14.53, 15.13, 17.25, 18.17, 17.87, 18.16, 16.96, 13.42, -14.3, -12.79, -11.6, -5.8, -9.8, 0.0, 0.0, 0.0, 0.0, 0.0, 0.0, 2.06, 0.0, 3.04, 5.27, 5.77, 9.75, 8.93, 7.59, 8.58, 7.59, 7.9, 0.0, 0.0, 0.0, -0.0, -3.96, 1.15, 2.28, 2.18, 2.24, 2.24, 2.24, 1.13, 1.1, 1.19, 1.25, 1.25, 1.42, 1.47, 1.51, 0.0, 0.0, 0.0, 0.0, -0.99, -1.03, -2.2, -3.53, -4.98, -3.85, -4.24, -3.25, 0.0, 0.0, 0.0, -2.39, -2.6, -3.68, 0.0, 0.0, 0.0, 9.83, 10.28, 11.18, 11.03, 10.8, 12.27, 12.35, 12.07, 10.28, 9.83, 9.83, 10.18, 9.86, 10.27, 10.75, 10.6, 11.06, 12.07, 12.52, 14.3, 15.59, 14.53, 14.29, 11.03, 12.04, 13.86, 13.29, 13.83, 13.39, 16.97, 18.31, 19.17, 20.85, 21.4, 22.38, 18.31, 14.3, 9.12, -11.2, -6.7, -6.2, -0.0, 0.0, 0.0, 0.0, 0.0, 2.28, 4.39, 7.11, 7.96, 9.06, 9.06, 8.85, 10.41, 6.7, 6.14, 6.17, 3.53, -0.0, -0.0, -5.4, -6.7, -2.93, 1.15, 2.28, 2.11, 2.18, 1.13, 1.1, 1.1, 1.1, 1.19, 1.3, 1.3, 1.3, 1.47, 1.51, 1.6, 0.0, 0.0, 0.0, 0.0, -1.1, -2.18, -2.18, -3.58, -5.35, -5.35, -4.12, -2.81, -1.77, -4.38, -5.8, -3.19, 0.0, 0.0, 0.0, 10.28, 9.83, 9.39, 10.28, 8.55, 9.6, 11.4, 11.18, 11.18, 11.18, 9.54, 9.83, 8.49, 9.13, 10.32, 10.62, 10.62, 10.73, 13.28, 13.75, 12.96, 12.02, 11.3, 12.07, 13.44, 11.14, 12.93, 13.41, 13.41, 13.86, 14.3, 14.75, 16.54, 17.88, 18.65, 16.17, 17.17, 12.5, 7.98, 0.0, -11.62, -0.0, 13.99, 10.75, 7.32, 5.18, 1.66, 2.72, 4.39, 7.36, 8.85, 8.97, 10.12, 12.11, 11.18, 5.52, 5.46, 5.7, 3.53, 2.28, -0.0, -2.82, -2.82, -2.28, 1.15, 1.15, 1.06, 1.1, 1.1, 1.1, 1.1, 1.1, 1.19, 1.3, 1.3, 2.89, 2.89, 1.51, 1.6, 1.37, 0.0, 0.0, 0.0, 0.0, -1.17, -1.17, -2.38, -3.62, -5.09, -5.23, -3.9, -4.12, -4.37, -4.66, -1.72, 0.0, 0.0, 0.0, 7.27, 9.83, 10.28, 8.91, 7.9, 9.2, 10.41, 11.62, 10.73, 10.73, 9.39, 9.39, 9.39, 9.21, 8.82, 9.7, 10.14, 10.28, 9.64, 8.33, 8.94, 8.94, 9.33, 9.27, 11.34, 12.52, 10.92, 11.28, 12.0, 12.0, 12.07, 12.96, 13.86, 13.31, 11.99, 11.68, 11.06, 9.54, 4.4, 1.15, 0.0, 14.53, 13.8, 11.06, 10.02, 7.76, 5.99, 5.33, 3.44, 0.0, -0.0, 8.66, 9.8, 11.64, 12.07, 7.24, 6.2, 5.95, 4.4, 3.07, 2.19, -0.0, -0.0, -0.0, 1.15, 1.15, 1.06, 1.1, 1.1, 1.1, 1.1, 1.1, 1.3, 1.3, 1.47, 2.89, 2.89, 1.51, 1.42, 1.34, 0.0, 0.0, 0.0, 0.0, 0.0, -1.15, -1.23, -2.52, -3.72, -3.72, -3.72, -4.73, -4.6, -4.47, -1.26, 1.68, 3.36, 2.82, 7.27, 8.94, 9.83, 9.33, 7.9, 8.93, 9.97, 10.41, 10.73, 9.83, 9.39, 9.39, 9.39, 8.94, 8.94, 8.49, 8.94, 8.94, 8.94, 8.67, 8.49, 8.49, 8.49, 9.33, 10.68, 11.62, 9.63, 8.38, 9.2, 9.2, 9.55, 11.18, 10.28, 12.3, 11.53, 9.16, 5.31, 2.25, 1.17, 4.01, 12.01, 13.33, 12.3, 11.47, 10.05, 8.86, 8.53, 8.7, 6.6, -9.17, -3.68, -5.0, 9.17, 13.41, 13.41, 10.37, 7.51, 3.39, 3.07, 4.15, 3.39, 2.6, -0.0, -0.0, 1.15, 1.15, 1.1, 1.06, 1.06, 0.0, 0.0, 0.0, 1.3, 1.42, 1.47, 1.47, 1.51, 1.51, 1.42, 1.42, 0.0, 0.0, 0.0, 0.0, 0.0, 0.0, -1.15, -1.15, -2.28, -2.28, -3.37, -4.42, -4.15, -4.26, -2.25, 1.41, 5.09, 5.31, 4.6, 7.15, 8.4, 9.6, 9.2, 9.75, 10.18, 8.67, 9.33, 8.24, 9.39, 9.39, 9.39, 9.39, 8.94, 8.94, 8.94, 9.39, 9.39, 9.39, 9.39, 9.39, 9.83, 10.28, 10.6, 11.62, 10.96, 7.27, 6.95, 5.46, 5.46, 7.15, 9.97, 12.52, 10.79, 6.87, 1.53, 0.0, 1.34, 7.12, 12.33, 13.01, 12.12, 11.9, 11.0, 10.19, 9.12, 8.86, 7.92, 0.0, -5.8, -3.68, -0.0, 11.6, 12.45, 11.99, 8.53, 2.71, 2.19, 2.82, -0.0, 3.39, 2.71, 2.71, 1.15, 1.15, 0.0, 0.0, 0.0, 0.0, 0.0, 0.0, 1.34, 1.47, 1.47, 1.51, 1.51, 1.51, 1.38, 0.0, 0.0, 0.0, 0.0, 0.0, 0.0, 0.0, -1.11, -1.08, -1.11, -2.28, -2.34, -3.47, -3.47, -4.23, -3.21, 0.0, 3.2, 5.98, 6.63, 5.31, 7.15, 8.55, 10.18, 9.2, 9.33, 8.91, 7.6, 8.0, 8.94, 9.39, 9.39, 9.39, 9.39, 8.4, 8.4, 9.83, 9.83, 9.83, 9.83, 9.83, 9.83, 10.28, 10.73, 11.18, 10.84, 8.93, 8.55, 5.46, 5.21, 5.63, 8.23, 11.62, 6.44, 3.53, 2.8, 2.4, 6.77, 8.41, 9.61, 10.36, 10.13, 9.48, 10.2, 8.77, 7.82, 7.36, 5.86, -11.6, -5.8, 11.6, 12.96, 12.04, 12.45, 13.86, 13.41, 12.52, -0.0, -0.0, -0.0, -0.0, -0.0, -0.0, 1.15, 0.0, 0.0, 0.0, 0.0, 0.0, 0.0, 0.0, 0.0, 1.47, 1.47, 1.51, 1.56, 1.56, 1.51, 0.0, 0.0, 0.0, 0.0, 0.0, 0.0, 0.0, -1.2, 0.0, 0.0, 0.0, -2.48, -1.88, -3.42, -3.37, -3.42, -1.19, 0.0, 4.59, 7.6, 7.28, 6.3, 6.64, 6.95, 7.9, 8.55, 8.55, 9.2, 8.8, 8.8, 6.95, 9.83, 9.39, 9.39, 8.91, 9.33, 9.33, 9.33, 9.83, 9.83, 10.28, 9.83, 10.73, 11.18, 11.18, 10.73, 10.18, 9.75, 7.15, 6.64, 7.27, 8.23, 10.73, 0.0, 0.0, 1.38, 4.38, 5.98, 5.35, 4.2, 2.34, 2.28, 2.19, 3.99, 5.05, 3.47, 2.64, 1.96, 0.0, 0.0, 11.6, 12.14, 11.4, 12.58, 12.96, 12.39, 8.05, 0.0, -0.0, -0.0, 0.0, 0.0, 0.0, 0.0, 0.0, 0.0, 0.0, 0.0, 0.0, 0.0, 0.0, 0.0, 1.47, 1.47, 1.51, 1.56, 1.56, 1.42, 0.0, 0.0, 0.0, 0.0, 0.0, 0.0, 0.0, -1.34, -1.93, -1.83, -1.83, -1.83, -1.34, -1.3, -2.58, -2.47, -2.3, 0.0, 1.24, 4.47, 6.17, 6.43, 6.45, 5.29, 4.37, 5.36, 5.63, 6.64, 6.64, 4.96, 7.59, 6.95, 6.95, 8.4, 8.4, 8.91, 7.81, 8.91, 9.54, 8.3, 8.72, 10.18, 9.33, 9.75, 10.73, 10.28, 9.2, 9.33, 8.18, 7.51, 6.95, 9.75, 7.59, 0.0, -1.16, 0.0, 1.07, 0.0, -1.16, -2.93, -5.37, -6.74, -6.74, -1.04, 0.0, 0.95, 0.98, 0.98, 1.11, 1.33, 5.98, 7.59, 7.59, 11.03, 11.62, 5.8, 2.2, 0.0, 0.0, 0.0, 0.0, 0.0, 0.0, 0.0, 0.0, 0.0, 0.0, 0.0, 0.0, 0.0, 0.0, 0.0, 1.51, 1.47, 1.51, 1.56, 1.56, 0.0, 0.0, 0.0, 0.0, 0.0, 0.0, 0.0, 0.0, 0.0, -1.23, -1.3, -1.3, -1.23, -1.3, -1.24, -1.27, -1.19, -1.09, -1.09, 0.0, 1.21, 1.5, 3.58, 5.8, 5.2, 3.25, 3.49, 4.4, 5.9, 4.4, 4.2, 4.8, 6.95, 6.95, 6.64, 8.4, 6.32, 7.81, 8.91, 9.33, 9.2, 8.43, 7.27, 7.27, 7.59, 9.83, 9.83, 9.83, 9.33, 8.18, 7.81, 8.55, 10.8, 8.22, 1.84, 1.28, 1.17, 3.18, 2.51, -3.53, -8.84, -10.36, -12.01, -11.43, -8.11, -3.28, 0.0, 1.94, 2.8, 2.81, 2.4, 3.04, 4.75, 5.0, 3.97, 2.19, -2.93, 0.0, 0.0, 0.0, 0.0, 0.0, 3.68, 3.68, 0.0, 0.0, 0.0, 0.0, 0.0, 0.0, 0.0, 0.0, 0.0, 1.51, 1.68, 1.51, 1.51, 1.42, 0.0, 0.0, 0.0, 0.0, 0.0, 0.0, 0.0, 0.0, 0.0, 0.0, 0.0, -1.27, -1.24, 0.0, 0.0, 0.0, 0.0, 0.0, 0.0, 0.0, 0.0, 0.0, 1.42, 3.36, 3.44, 3.07, 3.25, 5.06, 4.83, 5.63, 4.0, 3.6, 4.6, 4.4, 4.2, 4.0, 6.32, 6.64, 7.44, 7.81, 8.18, 8.55, 8.38, 7.59, 4.8, 0.0, 8.94, 10.28, 9.54, 8.4, 9.54, 11.45, 12.52, 10.4, 9.3, 10.73, 11.64, 11.64, 13.13, 6.87, -12.0, -12.36, -15.04, -14.53, -12.9, -9.2, -2.5, 1.01, 4.03, 4.95, 4.47, 5.31, 6.2, 5.45, 5.36, 2.28, 0.0, -2.93, 0.0, 0.0, 0.0, 3.68, 0.0, 0.0, 0.0, 0.0, 0.0, 0.0, 0.0, 0.0, 0.0, 0.0, 0.0, 1.68, 1.68, 1.51, 0.0, 0.0, 0.0, 0.0, 0.0, 0.0, 0.0, 0.0, 0.0, 0.0, 0.0, 0.0, 0.0, 0.0, 0.0, 0.0, 0.0, 0.0, 0.0, 0.0, 0.0, 0.0, 0.0, 0.0, 1.07, 2.43, 2.81, 2.82, 2.95, 4.6, 5.46, 4.0, 4.14, 4.14, 3.11, 4.2, 4.0, 3.8, 4.0, 6.32, 6.32, 7.44, 7.81, 8.18, 8.55, 8.59, 6.2, 0.0, 9.39, 10.08, 10.28, 9.83, 9.83, 12.52, 12.96, 11.18, 11.18, 11.18, 12.42, 12.25, 12.66, 15.19, -7.9, -9.83, -13.44, -14.79, -15.06, -13.61, -8.43, -2.64, 1.2, 3.16, 5.41, 5.85, 6.6, 7.16, 6.4, 6.9, 7.82, 0.0, 0.0, 0.0, 0.0, 0.0, 0.0, 0.0, 0.0, 0.0, 0.0, 0.0, 0.0, 0.0, 0.0, 0.0, 0.0, 1.68, 1.68, 0.0, 0.0, 0.0, 0.0, 0.0, 0.0, 0.0, 0.0, 0.0, 0.0, 0.0, 0.0, 0.0, 0.0, 0.0, 0.0, 0.0, 0.0, 0.0, 0.0, 0.0, 0.0, 1.0, 1.0, 0.95, 0.95, 1.89, 1.9, 2.08, 2.23, 3.87, 5.98, 5.98, 4.44, 4.46, 5.46, 2.97, 2.83, 2.83, 2.83, 4.71, 4.71, 6.32, 7.44, 7.81, 7.28, 7.21, 6.71, 4.8, 8.49, 8.77, 8.72, 9.21, 9.83, 13.44, 12.96, 12.96, 10.73, 9.74, 10.28, 4.66, 9.72, 11.66, 9.89, -16.99, -14.99, -13.32, -13.81, -14.24, -12.7, -7.93, -3.36, -1.02, 1.1, 3.47, 4.74, 5.15, 6.73, 7.36, 8.44, 6.7, 0.0, 0.0, 0.0, 0.0, 0.0, 0.0, 0.0, 0.0, 0.0, 0.0, 0.0, 0.0, 0.0, 0.0, 0.0, 1.68, 1.51, 1.51, 0.0, 0.0, 0.0, 0.0, 0.0, 0.0, 0.0, 0.0, 0.0, 0.0, 0.0, 0.0, 0.0, 0.0, 0.0, 0.0, 0.0, 0.0, 0.0, 0.0, 0.0, 0.98, 1.0, 1.0, 0.95, 0.92, 1.67, 1.5, 2.31, 3.99, 5.72, 6.69, 5.21, 4.2, 3.35, 3.35, 3.52, 3.7, 3.52, 4.6, 4.71, 4.96, 6.32, 7.44, 7.44, 4.75, 6.32, 7.87, 9.54, 8.06, 8.3, 8.72, 10.84, 13.67, 12.39, 12.42, 11.09, 9.75, 4.15, 2.81, 9.66, 16.31, 12.82, 9.75, -9.89, -16.48, -14.18, -11.45, -13.19, -12.0, -9.33, -5.19, -1.33, 1.29, 2.81, 4.55, 7.79, 8.58, 10.1, 7.11, 0.0, 0.0, 0.0, 0.0, 0.0, 0.0, 0.0, 0.0, 0.0, 0.0, -1.06, 0.0, 0.0, 0.0, 0.0, 0.0, 0.0, 1.51, 1.56, 0.0, 0.0, 0.0, 0.0, 0.0, 0.0, 0.0, 0.0, 0.0, 0.0, 0.0, 0.0, 0.0, 0.0, 0.0, 0.0, 0.0, 0.0, 0.0, 0.0, 0.0, 1.07, 1.07, 1.0, 1.0, 1.83, 1.57, 1.39, 2.82, 5.06, 6.48, 5.7, 4.99, 4.4, 3.14, 3.14, 3.3, 3.3, 3.3, 4.4, 5.46, 4.96, 6.32, 6.01, 5.69, 7.15, 7.67, 8.43, 8.82, 7.67, 8.05, 9.75, 12.14, 11.78, 12.22, 10.32, 9.2, 7.59, 9.17, 10.43, 14.25, 18.08, 14.48, 10.59, -18.78, -16.09, -12.14, -12.72, -13.29, -12.16, -8.31, -3.14, 0.0, 3.68, 6.0, 9.48, 10.65, 11.44, 8.85, 6.0, 0.0, -0.0, 0.0, 11.18, 11.18, -1.15, -1.15, -1.15, -1.15, -1.15, 0.0, 0.0, 0.0, 0.0, 0.0, 0.0, 0.0, 0.0, 0.0, 0.0, 0.0, 0.0, 0.0, 0.0, 0.0, 0.0, 0.0, 0.0, 0.0, 0.0, 0.0, 0.0, 0.0, 0.0, 0.0, 0.0, 0.0, 0.0, 0.0, 0.0, 0.0, 0.0, 1.1, 1.1, 1.94, 0.86, 1.5, 2.95, 5.64, 5.9, 4.6, 3.82, 2.97, 3.14, 3.14, 3.3, 3.45, 3.87, 3.87, 6.14, 5.31, 6.01, 5.69, 5.37, 7.07, 8.05, 6.64, 7.59, 8.0, 10.18, 10.04, 11.35, 10.58, 10.14, 9.75, 9.3, 8.93, 9.8, 11.66, 13.95, 14.39, 11.19, -9.0, -13.97, -11.62, -12.04, -13.56, -11.9, -8.1, -6.44, 0.0, 5.31, 10.12, 11.53, 11.53, 10.43, 10.22, 8.18, 6.2, 4.1, 8.22, 5.0, 5.0, -1.15, -1.15, -1.15, -1.15, -1.15, 0.0, 0.0, 0.0, 0.0, 0.0, 0.0, 0.0, 0.0, 0.0, 0.0, 0.0, 0.0, 0.0, 0.0, 0.0, 0.0, 0.0, 0.0, 0.0, 0.0, 0.0, 0.0, 0.0, 0.0, 0.0, 0.0, 0.0, 0.0, 0.0, 0.0, 0.0, 0.0, 0.0, 1.13, 1.07, 1.95, 1.71, 2.34, 3.11, 4.25, 4.4, 3.82, 2.83, 1.84, 2.04, 2.04, 2.39, 3.61, 4.05, 6.24, 6.14, 6.32, 6.01, 5.69, 7.44, 6.32, 5.2, 6.95, 8.79, 8.91, 10.6, 10.6, 9.75, 9.54, 9.2, 9.09, 7.85, 6.21, 4.71, 5.5, 3.19, 4.0, 4.03, -16.09, -12.04, -10.73, -13.57, -13.03, -11.99, -10.04, -8.85, 6.0, 12.27, 11.64, 10.86, 9.8, 8.68, 9.35, 7.36, 6.2, 4.1, 4.39, 4.39, -1.15, -1.15, -1.15, -1.15, -1.15, 0.0, 0.0, 0.0, 0.0, 0.0, 0.0, 0.0, 0.0, 0.0, 0.0, 0.0, 0.0, 0.0, -1.26, -1.26, -1.3, -1.2, -1.2, -1.2, -1.2, -2.38, -1.2, -1.23, 0.0, 0.0, 0.0, 0.0, 0.0, 0.0, 0.0, 0.0, 0.0, 0.0, 1.13, 1.1, 2.07, 1.9, 1.77, 2.13, 3.3, 4.4, 3.98, 3.34, 2.28, 1.84, 2.13, 2.13, 3.45, 3.61, 4.8, 6.24, 6.44, 6.17, 7.33, 6.64, 4.44, 4.44, 8.15, 9.11, 9.63, 11.09, 11.18, 9.2, 8.18, 8.23, 7.9, 7.51, 5.08, 0.0, -3.47, -4.67, -1.97, 1.87, 2.48, -6.47, -15.65, -13.23, -12.16, -7.93, -9.17, -11.6, 0.0, 11.09, 10.12, 9.42, 8.94, 8.18, 7.82, 7.71, 7.23, 6.2, 5.8, 5.8, -1.15, -1.15, -1.15, -1.15, -1.25, 0.0, 0.0, 0.0, 0.0, 0.0, 0.0, 0.0, 0.0, 0.0, 0.0, 0.0, -1.38, -1.26, -2.5, -2.5, -2.57, -2.57, -3.79, -3.79, -3.79, -2.57, -2.5, -2.57, -1.34, -1.23, 0.0, 0.0, 0.0, 0.0, 0.0, 0.0, 0.0, 0.0, 1.21, 1.21, 2.28, 2.02, 1.9, 1.62, 2.12, 3.45, 4.24, 4.24, 3.85, 2.45, 2.19, 1.84, 2.13, 3.11, 4.18, 5.69, 6.24, 6.98, 7.59, 5.46, 4.44, 5.72, 7.37, 8.4, 8.91, 10.73, 11.18, 11.45, 7.33, 7.87, 7.9, 7.95, 6.2, 2.34, -4.03, -7.17, -5.2, -1.88, 1.78, 1.06, -5.18, -12.51, -8.43, -1.77, 0.0, 0.0, 3.81, 6.2, 7.69, 7.68, 7.93, 7.5, 7.23, 7.67, 7.71, 7.23, 6.2, 6.2, -1.11, -1.11, -1.15, -1.25, 0.0, 0.0, 0.0, 0.0, 0.0, 0.0, 0.0, 0.0, 0.0, 0.0, 0.0, -1.42, -1.3, -2.57, -2.57, -3.79, -3.79, -3.79, -3.79, -3.79, -3.79, -3.79, -2.72, -2.64, -2.72, -1.3, -1.34, 0.0, 0.0, 0.0, 0.0, 0.0, 0.0, 1.18, 1.18, 1.21, 2.34, 2.15, 1.97, 1.76, 1.47, 2.23, 4.55, 5.31, 4.11, 3.53, 3.06, 2.47, 2.47, 2.7, 3.99, 5.45, 5.69, 7.27, 6.98, 5.95, 5.21, 6.01, 6.32, 7.67, 8.77, 8.91, 9.54, 9.33, 8.55, 7.27, 6.95, 6.98, 5.8, 5.95, 1.06, -4.72, -7.05, -5.19, -2.81, 0.0, 0.0, -2.97, -2.79, 0.0, 1.94, 2.8, 4.41, 5.11, 5.81, 6.36, 6.0, 6.65, 6.88, 6.6, 6.8, 7.11, 6.73, 6.73, -1.11, -1.11, -1.21, -1.25, 0.0, 0.0, 0.0, 0.0, 0.0, 0.0, 0.0, 0.0, 0.0, -1.42, -1.42, -1.3, -2.57, -2.65, -3.9, -3.9, -4.23, -4.23, -4.12, -2.8, -2.8, -2.8, -2.72, -2.81, -2.0, -1.47, -1.42, 0.0, 0.0, 0.0, 0.0, 0.0, 1.15, 1.18, 1.18, 1.18, 2.34, 2.21, 2.11, 0.86, 0.85, 1.84, 3.41, 3.88, 3.65, 3.29, 1.84, 2.35, 2.35, 2.35, 3.49, 3.99, 5.45, 6.24, 6.24, 5.92, 5.32, 5.21, 6.01, 6.63, 8.3, 8.33, 6.9, 9.39, 7.27, 5.52, 5.46, 4.05, 3.44, 5.5, 4.76, 0.0, -6.14, -7.51, -5.8, -2.8, 0.0, 0.0, 0.0, 1.0, 1.83, 3.41, 5.12, 4.85, 4.81, 4.36, 5.43, 6.21, 7.69, 6.78, 6.6, 6.6, 6.4, 6.4, 0.0, 0.0, 0.0, 0.0, 0.0, 0.0, 0.0, 0.0, 0.0, 0.0, 0.0, 0.0, 0.0, -1.34, -1.3, -2.57, -2.57, -3.79, -3.79, -4.23, -4.23, -2.88, -2.88, -2.8, -2.72, -2.72, -2.72, -2.81, -2.72, -1.94, -1.47, 0.0, 0.0, 0.0, 0.0, 1.15, 1.15, 1.18, 1.18, 1.18, 1.18, 2.28, 2.18, 0.93, 0.89, 0.97, 2.32, 3.65, 3.65, 2.08, 1.68, 1.6, 2.35, 2.57, 3.49, 3.99, 5.21, 5.98, 5.69, 5.92, 5.21, 4.37, 6.64, 5.69, 7.28, 7.94, 7.81, 8.49, 4.4, 3.98, 4.05, 1.52, 0.0, 1.1, 4.26, 7.67, 5.94, -11.99, -7.19, -4.66, -1.1, 1.1, 1.15, 1.27, 2.11, 3.11, 3.88, 3.59, 3.0, 4.1, 5.08, 7.02, 7.54, 7.13, 5.99, 6.24, 6.05, 6.05, 0.0, 0.0, 0.0, 0.0, 0.0, 0.0, 0.0, 0.0, 0.0, 0.0, 0.0, 0.0, 0.0, -1.34, -2.5, -2.57, -3.79, -3.79, -4.12, -4.23, -4.62, -4.75, -3.16, -3.16, -2.72, -1.51, -1.51, -1.47, -1.47, -1.47, 0.0, 0.0, 0.0, 0.0, 0.0, 1.23, 1.15, 1.15, 1.18, 1.18, 1.27, 2.34, 2.31, 0.99, 0.89, 0.97, 2.24, 2.72, 2.72, 2.37, 0.98, 1.84, 1.84, 2.7, 2.83, 3.99, 4.18, 4.6, 4.6, 4.8, 5.98, 5.9, 6.32, 6.64, 6.63, 7.28, 7.2, 7.2, 0.0, 2.49, 5.46, 5.2, 2.37, 1.21, 3.88, 8.97, 8.6, 2.07, -6.34, -7.0, -4.23, 0.0, 1.37, 1.54, 3.04, 2.65, 3.75, 3.16, 3.65, 4.39, 5.4, 7.82, 7.82, 5.8, 5.15, 6.6, 6.78, 6.78, 0.0, 0.0, 0.0, 0.0, 0.0, 0.0, 0.0, 0.0, 0.0, 0.0, 0.0, 0.0, 0.0, -1.34, -1.23, -2.31, -3.42, -3.69, -5.19, -5.81, -4.62, -5.09, -3.49, -3.16, -1.56, -1.51, 0.0, 0.0, 0.0, 0.0, 0.0, 0.0, 0.0, 0.0, 0.0, 0.0, 1.23, 1.23, 1.18, 1.27, 1.27, 2.45, 2.31, 1.03, 0.93, 0.97, 2.06, 2.4, 2.63, 2.81, 1.18, 1.02, 0.98, 1.93, 2.83, 3.11, 3.25, 3.61, 4.6, 6.16, 6.16, 5.98, 5.63, 5.63, 7.51, 6.32, 5.69, 6.01, 7.44, 8.05, 8.18, 9.3, 6.67, 4.58, 4.95, 6.94, 9.2, 7.99, 1.51, -3.42, -5.99, -2.65, 0.0, 2.05, 3.9, 4.62, 4.62, 5.63, 6.0, 5.8, 5.6, 5.4, 5.6, 4.93, 6.0, 5.15, 6.4, 6.4, 0.0, 0.0, 0.0, 0.0, 0.0, 0.0, 0.0, 0.0, 0.0, 0.0, 0.0, 0.0, -1.38, -1.23, -2.43, -2.31, -3.42, -4.81, -5.19, -5.81, -4.95, -3.49, -3.49, -1.78, 0.0, 0.0, 0.0, 0.0, 0.0, 0.0, 0.0, 0.0, 0.0, 0.0, 0.0, 0.0, 0.0, 1.2, 1.23, 1.23, 1.23, 1.23, 2.38, 1.03, 0.93, 0.97, 1.0, 2.32, 2.63, 1.43, 1.28, 0.0, 0.0, 0.98, 1.93, 2.13, 3.25, 3.61, 4.6, 5.2, 5.86, 6.71, 5.06, 5.03, 5.31, 5.21, 5.69, 7.6, 8.94, 8.85, 10.58, 9.63, 9.48, 6.64, 4.96, 5.81, 7.8, 8.8, 6.94, 4.2, 0.0, -7.0, 0.0, 3.47, 5.15, 7.13, 7.13, 6.9, 5.8, 5.11, 5.11, 4.39, 3.44, 3.56, 4.1, 3.85, 5.73, 5.73, 0.0, 0.0, 0.0, 0.0, 0.0, 0.0, 0.0, 0.0, 0.0, 0.0, 0.0, 0.0, -1.38, -1.26, -2.24, -2.24, -3.42, -4.81, -5.19, -6.35, -4.95, -3.79, -2.0, 0.0, 0.0, 0.0, 0.0, 1.63, 1.63, 0.0, 0.0, 0.0, 0.0, 0.0, 0.0, 0.0, 0.0, 0.0, 0.0, 1.23, 1.23, 1.23, 2.31, 1.29, 0.85, 0.0, 1.05, 1.13, 2.54, 1.29, 0.0, 0.0, 0.0, 0.0, 1.09, 1.09, 2.49, 3.61, 4.8, 5.0, 5.86, 6.7, 5.06, 5.31, 4.71, 4.2, 4.46, 8.49, 8.94, 8.94, 9.32, 9.97, 10.41, 10.6, 9.14, 5.81, 4.66, 4.44, 4.76, 6.87, 6.64, 5.37, 0.0, 9.8, 11.53, 8.31, 8.66, 6.9, 5.28, 4.71, 4.55, 2.72, 2.72, 1.43, 1.29, 1.17, 1.08, 3.53, 0.0, 0.0, 0.0, 0.0, 0.0, 0.0, 0.0, 0.0, 0.0, 0.0, -1.38, -1.38, -1.26, -1.26, -2.31, -2.24, -2.24, -3.69, -5.19, -7.0, -7.76, -7.0, -4.95, -2.28, 0.0, 1.68, 1.63, 3.2, 1.63, 1.63, 0.0, 0.0, 0.0, 0.0, 0.0, 0.0, 0.0, 0.0, 0.0, 0.0, 0.0, 1.34, 1.23, 1.2, 0.82, 0.0, 0.0, 0.0, 1.33, 1.43, 1.38, 0.0, 0.0, 0.0, 0.0, 0.0, 2.49, 4.05, 5.0, 5.0, 5.86, 6.7, 5.52, 4.71, 4.46, 4.0, 7.07, 7.94, 8.49, 8.49, 8.94, 10.28, 11.09, 10.92, 11.37, 9.64, 4.27, 0.95, 0.0, 3.13, 9.43, 12.01, 7.8, 14.39, 13.15, 8.31, 6.2, 6.0, 3.68, 3.14, 2.81, 1.43, 1.25, 0.0, 0.0, 0.0, 1.38, 1.08, 0.0, 0.0, 0.0, 0.0, 0.0, 0.0, 0.0, -1.42, -1.47, -1.34, -1.38, -1.38, -1.26, -2.5, -2.31, -2.24, -3.32, -3.32, -5.19, -8.06, -10.02, -11.06, -8.05, 0.0, 4.95, 3.69, 3.2, 3.2, 3.1, 1.58, 1.63, 0.0, 0.0, 0.0, 0.0, 0.0, 0.0, 0.0, 0.0, 0.0, 0.0, 0.0, 0.0, 1.0, 1.07, 0.0, 0.0, 0.0, 1.58, 3.01, 1.43, 0.0, 0.0, 0.0, 0.0, 0.0, 2.49, 4.23, 5.0, 4.54, 5.86, 6.7, 5.21, 4.83, 5.36, 6.64, 6.79, 8.38, 8.41, 8.87, 8.94, 9.39, 11.53, 11.37, 12.63, 14.13, 11.66, 6.75, 3.04, 0.0, -0.0, 0.0, 0.0, 17.88, 13.59, 7.69, 4.98, 4.24, 3.56, 3.04, 1.38, 1.25, 0.0, 0.0, 1.77, 2.37, 4.48, 1.38, 0.0, 0.0, 0.0, 0.0, 0.0, 0.0, -1.38, -1.42, -1.42, -1.34, -1.34, -1.34, -1.26, -2.31, -2.24, -2.24, -3.09, -3.09, -3.32, -5.19, -9.12, -9.89, -4.18, 7.0, 10.02, 7.76, 5.18, 3.1, 3.1, 3.1, 1.58, 1.47, 0.0, 0.0, 0.0, 0.0, 0.0, 0.0, 0.0, 0.0, 0.0, 0.0, 0.0, 0.0, 0.0, 0.0, 0.0, 0.0, 1.63, 3.1, 3.01, 1.38, 0.0, 0.0, 0.0, 1.09, 2.49, 3.77, 3.77, 4.54, 5.86, 6.7, 6.44, 5.06, 5.63, 5.21, 6.01, 9.11, 8.41, 9.39, 9.35, 9.35, 10.62, 10.68, 11.37, 14.22, 14.69, 15.33, 15.07, 12.59, 11.06, 14.51, 0.0, 0.0, 0.0, 5.8, 5.8, 4.1, 3.56, 3.14, 1.55, 1.77, 2.06, 6.94, 8.85, 10.8, 10.8, 10.8, 0.0, 0.0, 0.0, 0.0, 0.0, 0.0, -1.38, -1.42, -1.42, -1.3, -1.34, -1.34, -1.23, -2.24, -2.24, -2.09, -2.09, -3.09, -3.09, -3.09, -4.18, -3.18, 2.31, 7.28, 8.43, 6.8, 4.66, 3.1, 3.1, 1.53, 1.53, 1.38, 0.0, 0.0, 0.0, 0.0, 0.0, 0.0, 0.0, 0.0, 0.0, 0.0, 0.0, 0.0, 0.0, 0.0, 0.0, 0.0, 1.42, 1.53, 2.91, 1.33, 1.09, 0.0, 1.09, 1.09, 2.6, 2.6, 2.71, 3.92, 5.2, 6.4, 6.16, 5.29, 5.9, 6.64, 8.4, 9.21, 8.49, 9.39, 9.35, 8.94, 10.58, 8.8, 9.77, 10.12, 12.97, 15.98, 18.0, 17.45, 15.81, 14.52, 12.82, 0.0, -0.0, 9.48, 5.6, 4.81, 4.81, 4.81, 5.6, 8.85, 11.2, 12.52, 12.07, 12.07, 12.07, 12.07, 0.0, 0.0, 0.0, 0.0, 0.0, -1.48, -1.38, -1.38, -2.72, -2.81, -2.56, -2.64, -2.43, -2.24, -2.24, -2.09, -2.09, -2.09, -1.95, -1.95, -1.89, 0.0, 2.64, 5.64, 5.85, 5.64, 3.2, 3.1, 1.53, 1.53, 1.33, 0.0, 0.0, 0.0, 0.0, 0.0, 0.0, 0.0, 0.0, 0.0, 0.0, 0.0, 0.0, 0.0, 0.0, 0.0, 0.0, 0.0, 0.0, 1.25, 2.62, 2.71, 1.16, 1.04, 1.09, 1.09, 1.18, 1.33, 2.71, 3.92, 5.77, 6.4, 7.24, 6.21, 6.17, 7.87, 9.26, 9.83, 8.94, 8.9, 8.94, 8.94, 8.91, 8.55, 7.9, 7.28, 8.68, 12.12, 14.22, 17.59, 19.5, 17.83, 15.91, 9.99, 0.0, 15.2, 11.87, 12.3, 12.96, 12.96, 12.52, 12.52, 12.07, 8.85, 8.53, 5.4, 5.4, 5.4, 0.0, 0.0, 0.0, 0.0, -1.33, -1.48, -1.38, -1.38, -2.81, -2.81, -2.56, -2.64, -2.43, -2.24, -1.13, -1.05, -2.09, -2.09, -1.95, -0.98, 0.0, 0.0, 2.01, 4.18, 4.81, 4.0, 2.64, 1.42, 1.38, 1.33, 0.0, 0.0, 0.0, 0.0, 0.0, 0.0, 0.0, 0.0, 0.0, 0.0, 0.0, 0.0, 0.0, 0.0, 0.0, 0.0, 0.0, -1.11, -1.11, 0.0, 1.23, 2.49, 2.17, 1.16, 1.22, 1.14, 1.14, 1.33, 1.58, 3.07, 6.2, 6.76, 7.02, 7.56, 8.53, 9.13, 8.82, 8.94, 9.39, 9.39, 9.39, 8.82, 8.72, 8.03, 8.93, 10.09, 9.48, 8.57, 11.09, 12.79, 16.24, 17.31, 14.88, 13.98, 15.49, 17.59, 15.27, 10.79, 9.17, 8.85, 9.17, 5.4, 5.6, -0.0, -0.0, -0.0, -0.0, -0.0, 0.0, 0.0, 0.0, -1.29, -1.43, -1.33, -1.33, -2.72, -2.81, -2.81, -2.56, -2.56, -2.43, -2.43, -2.24, -1.05, -1.05, -1.05, -0.98, 0.0, 0.0, 0.0, 2.15, 2.31, 2.5, 2.5, 2.43, 1.3, 1.25, 1.38, 0.0, 0.0, 0.0, 0.0, 0.0, 0.0, 0.0, 0.0, 0.0, 0.0, 0.0, 0.0, 0.0, 0.0, 0.0, 0.0, 0.0, -1.08, -1.08, 0.0, 1.23, 2.7, 2.46, 1.33, 1.22, 0.0, 0.0, 0.0, 1.84, 4.15, 6.98, 7.15, 7.73, 8.53, 8.94, 9.55, 8.77, 8.41, 9.29, 9.39, 9.39, 9.64, 9.21, 9.7, 10.62, 10.46, 9.42, 8.15, 8.57, 11.35, 14.34, 14.14, 13.07, 14.69, 19.34, 7.07, 4.55, 6.0, 3.14, 5.8, 5.6, 5.6, -0.0, -0.0, -0.0, -0.0, -0.0, -0.0, 0.0, 0.0, -1.29, -1.43, -1.48, -1.33, -1.33, -2.72, -2.72, -2.81, -2.56, -2.56, -2.64, -2.43, -2.24, -1.13, -1.05, -1.05, 0.0, 0.0, 0.0, 1.08, 1.17, 2.31, 2.5, 1.26, 1.23, 1.19, 1.25, 0.0, 0.0, 0.0, 0.0, 0.0, 0.0, 0.0, 0.0, 0.0, 0.0, 0.0, 0.0, 0.0, 0.0, 0.0, 0.0, 0.0, 0.0, 0.0, -1.04, -1.05, 0.0, 1.39, 2.46, 1.33, 0.0, 0.0, 0.0, 0.0, 1.84, 5.75, 6.7, 7.15, 7.44, 9.16, 9.86, 9.55, 8.67, 8.94, 9.83, 10.28, 9.83, 9.83, 9.83, 9.83, 10.65, 10.46, 9.16, 8.61, 8.05, 9.36, 12.13, 13.61, 14.37, 17.05, 22.12, -4.56, -3.01, -0.0, -0.0, 2.93, 3.96, 3.96, -0.0, -0.0, -0.0, -0.0, -0.0, -0.0, -1.25, -1.25, -1.29, -1.43, -1.43, -1.33, -2.72, -2.72, -2.72, -2.72, -2.56, -2.56, -2.56, -2.43, -2.43, -2.24, -1.13, -1.05, 0.0, 0.0, 0.0, 1.05, 1.17, 1.26, 1.26, 1.26, 0.0, 0.0, 0.0, 0.0, 0.0, 0.0, 0.0, 0.0, 0.0, 0.0, 0.0, 0.0, 0.0, 0.0, 0.0, 0.0, 0.0, 0.0, 0.0, 0.0, 0.0, 0.0, -1.0, -1.01, 0.0, 1.28, 1.33, 1.26, 0.0, 0.0, 0.0, 0.0, 3.39, 6.7, 7.59, 6.87, 8.22, 9.82, 10.4, 9.96, 9.11, 9.11, 9.83, 9.83, 9.97, 9.33, 10.18, 10.28, 10.2, 9.86, 9.46, 9.08, 9.17, 9.48, 10.27, 12.85, 14.88, 18.97, 22.32, -9.3, -7.57, -2.13, 2.06, 4.48, 5.4, 2.82, -0.0, -0.0, -0.0, -0.0, -0.0, -0.0, -1.25, -1.25, -1.29, -1.29, -1.29, -2.63, -2.72, -2.72, -2.72, -2.81, -2.56, -2.56, -2.64, -2.43, -2.43, -2.43, -1.13, -1.13, -1.13, 0.0, 0.0, 0.0, 1.17, 1.26, 0.0, 0.0, 0.0, 0.0, 0.0, 0.0, 0.0, 0.0, 0.0, 0.0, 0.0, 0.0, 0.0, 0.0, 0.0, 0.0, 0.0, 0.0, 0.0, 0.0, 0.0, 0.0, 0.0, 0.0, 0.0, -0.89, 0.0, 0.0, 1.39, 1.33, 0.0, 0.0, 0.0, 1.45, 5.1, 6.87, 6.87, 6.87, 7.9, 9.27, 10.68, 10.18, 9.33, 8.72, 9.33, 9.39, 9.64, 9.13, 9.89, 10.62, 10.73, 10.32, 9.7, 9.86, 9.77, 9.59, 9.8, 11.7, 16.22, 17.07, 17.66, 0.0, -0.0, 5.8, 9.48, 7.19, 5.4, 5.4, 3.04, -0.0, -0.0, -0.0, -0.0, -0.0, -1.25, -1.25, -1.29, -1.29, -2.54, -2.63, -2.72, -2.72, -2.72, -2.81, -2.56, -2.56, -2.64, -2.43, -2.43, -2.43, -2.43, -1.13, -1.13, -1.13, 0.0, 0.0, 0.0, 0.0, 0.0, 0.0, 0.0, 0.0, 0.0, 0.0, 0.0, 0.0, 0.0, 0.0, 0.0, 0.0, 0.0, 0.0, 0.0, 0.0, 0.0, 0.0, 0.0, 0.0, 0.0, 0.0, 0.0, 0.0, 0.0, -0.89, 0.0, 0.0, 1.09, 1.11, 0.0, 0.0, 0.0, 2.39, 4.4, 5.98, 5.7, 5.7, 7.59, 9.67, 11.09, 11.03, 8.82, 9.13, 10.28, 9.83, 9.83, 9.39, 9.21, 10.08, 10.73, 10.75, 10.27, 9.86, 10.04, 10.12, 9.92, 9.92, 11.86, 12.16, 10.58, 0.0, 3.58, 12.52, 9.48, 13.86, 9.8, 7.44, -0.0, -0.0, -0.0, 5.8, 5.8, 5.8, -1.25, -1.25, -1.25, -1.29, -2.54, -2.54, -2.63, -2.72, -2.72, -2.81, -2.56, -3.88, -3.88, -2.43, -2.43, -2.43, -2.43, -2.43, -1.23, -1.23, -1.13, 0.0, 0.0, 0.0, 0.0, 0.0, 0.0, 0.0, 0.0, 0.0, 0.0, 0.0, 0.0, 0.0, 0.0, 0.0, 0.0, 0.0, 0.0, 0.0, 0.0, 0.0, 0.0, 0.0, 0.0, 0.0, 0.0, 0.0, 0.0, 0.0, 0.0, 0.0, 0.0, 0.0, 0.0, 0.0, 1.04, 2.13, 3.11, 4.88, 4.6, 6.42, 7.59, 9.3, 11.09, 10.68, 9.96, 10.28, 10.18, 9.76, 9.39, 9.39, 9.39, 9.83, 10.28, 10.62, 10.27, 10.4, 9.86, 9.88, 10.12, 9.64, 8.78, 7.17, 3.66, 21.68, 13.02, -0.0, -12.52, -14.3, 0.0, -0.0, -0.0, -0.0, -0.0, 13.41, 13.41, 13.41, -1.25, -1.25, -1.25, -2.54, -2.54, -2.54, -2.63, -2.72, -2.72, -2.56, -3.76, -3.88, -3.88, -3.58, -2.43, -2.43, -2.43, -2.43, -2.43, -1.23, -1.23, -1.23, 0.0, -1.23, -1.23, 0.0, 0.0, 0.0, 0.0, 0.0, 0.0, 0.0, -1.17, -1.08, 0.0, 0.0, 0.0, 0.0, 0.0, 0.0, 0.0, 0.0, 0.0, 0.0, 0.0, 0.0, 0.0, 0.0, 0.0, 0.0, -0.97, 0.0, 0.0, 0.0, 0.0, 0.0, 0.93, 1.84, 2.04, 2.39, 4.4, 5.29, 7.27, 9.3, 10.4, 11.09, 11.84, 11.18, 9.89, 9.33, 9.7, 10.28, 10.28, 10.73, 10.28, 10.62, 10.75, 10.0, 10.0, 9.86, 9.53, 8.85, 9.06, 4.48, 10.24, 20.38, 12.01, 5.8, -5.8, -9.8, -8.18, -10.43, 0.0, 0.0, 13.86, 13.86, 13.86, 13.86, -2.45, -2.45, -2.45, -2.45, -2.54, -2.54, -2.63, -2.63, -2.72, -3.65, -3.76, -3.76, -3.58, -3.58, -2.43, -2.43, -2.43, -2.43, -2.43, -2.5, -1.23, -1.23, -1.23, -1.23, -1.23, -1.19, 0.0, 0.0, 0.0, 0.0, 0.0, 0.0, -1.17, -1.13, 0.0, 0.0, 0.0, 0.0, 0.0, 0.0, 0.0, 0.0, 0.0, 0.0, 0.0, 0.0, 0.0, 0.0, 0.0, 0.0, -0.97, 0.0, 0.0, 0.0, 0.0, 0.0, 0.81, 0.89, 2.04, 2.58, 2.97, 5.06, 7.27, 9.2, 10.0, 11.03, 11.95, 11.09, 9.55, 7.87, 8.8, 9.97, 10.73, 10.73, 11.18, 10.73, 11.09, 10.84, 10.0, 9.6, 9.48, 9.36, 9.14, 10.38, 18.39, 4.03, 2.79, 2.72, -0.0, -3.81, -5.48, -10.43, -14.75, 0.0, 14.3, 13.88, 13.88, 13.88, -2.45, -2.45, -2.45, -2.45, -2.45, -2.54, -2.63, -2.72, -3.98, -3.65, -3.65, -3.76, -3.58, -3.58, -3.58, -3.58, -2.43, -2.43, -2.43, -2.5, -2.5, -1.23, -1.23, -1.23, -1.19, -1.3, -1.3, 0.0, 0.0, 0.0, 0.0, 0.0, 0.0, 0.0, 0.0, 0.0, 0.0, 0.0, 0.0, 0.0, 0.0, 0.0, 0.0, 0.0, 0.0, 0.0, 0.0, 0.0, 0.0, -0.89, -0.97, 0.0, 0.0, 0.0, 0.0, 0.0, 0.0, 0.89, 0.99, 1.33, 2.97, 4.83, 6.95, 8.82, 9.58, 10.79, 11.46, 11.18, 9.6, 8.8, 8.8, 9.97, 10.28, 10.73, 10.73, 10.14, 11.18, 11.09, 10.46, 10.27, 10.09, 9.66, 10.64, 13.85, 17.05, 15.17, -0.0, -0.0, -0.0, -1.77, -4.66, -6.6, 0.0, 14.75, 13.88, 12.79, 12.79, 12.79, -2.45, -2.45, -2.45, -2.45, -2.45, -2.45, -2.54, -3.85, -3.53, -3.53, -3.65, -3.76, -3.47, -3.58, -3.58, -3.58, -3.58, -2.43, -2.43, -2.5, -2.5, -1.38, -1.38, -1.23, 0.0, 0.0, -1.3, -1.25, -1.25, -1.21, -1.08, 0.0, 0.0, 0.0, 0.0, 0.0, 0.0, 0.0, 0.0, 0.0, 0.0, 0.0, 0.0, 0.0, 0.0, 0.0, 0.0, 0.0, 0.0, -0.85, -0.93, -0.93, 0.0, 0.0, 0.0, 0.0, 0.0, 0.0, 0.0, 1.26, 3.49, 4.83, 6.95, 8.23, 8.58, 10.0, 10.96, 11.18, 10.14, 9.54, 9.97, 10.08, 10.73, 11.18, 11.18, 9.55, 9.13, 10.28, 10.58, 10.18, 10.0, 8.73, 8.64, 10.8, 11.44, 3.94, -6.14, -0.0, -0.0, -2.43, -2.98, 6.8, 15.65, 13.59, 13.19, 12.79, 12.79, 12.79, -2.45, -2.45, -2.45, -2.45, -2.54, -2.54, -3.73, -3.73, -3.53, -3.53, -3.65, -3.76, -3.47, -3.58, -3.58, -3.58, -3.58, -2.43, -2.43, -2.43, -2.5, -2.72, -1.38, -1.34, -1.3, -1.3, -1.3, -1.25, -1.21, -1.21, -1.17, -1.13, 0.0, 0.0, -1.09, 0.0, 0.0, 0.0, 0.0, 0.0, 0.0, 0.0, -1.01, -1.01, -0.97, -0.97, 0.0, 0.0, 0.0, -0.85, -0.93, 0.0, 0.0, 0.0, 0.0, 0.0, 0.0, 0.0, 0.0, 1.47, 3.32, 4.83, 5.9, 8.23, 7.27, 8.93, 10.73, 10.73, 10.28, 10.28, 9.97, 10.52, 10.58, 11.02, 10.58, 9.55, 7.87, 9.64, 10.28, 10.52, 8.94, 6.7, 4.11, 3.68, 3.65, 1.81, -19.6, -8.51, -6.6, -6.8, -0.0, 15.2, 15.04, 13.58, 12.51, 12.27, 12.27, 12.27, -2.45, -2.45, -2.45, -2.45, -2.54, -3.73, -3.73, -3.53, -3.53, -3.53, -3.65, -3.65, -3.47, -3.58, -3.58, -3.58, -3.58, -2.43, -2.43, -2.5, -2.5, -2.72, -2.72, -2.64, -1.3, -1.3, -1.25, -1.25, -1.21, -1.17, -1.17, -1.13, -1.13, -1.09, -1.09, -1.2, 0.0, 0.0, 0.0, 0.0, -1.11, -1.11, -1.11, -0.97, -0.97, -0.97, -0.97, 0.0, 0.0, -0.93, -0.93, -0.98, 0.0, 0.0, 0.0, 0.0, 0.0, 0.0, 0.0, 1.4, 1.75, 4.0, 5.63, 6.95, 5.46, 8.8, 10.28, 10.28, 10.28, 10.73, 10.41, 9.6, 9.96, 10.38, 9.2, 8.23, 7.87, 6.64, 9.83, 10.18, 6.2, 3.68, 1.53, 1.21, 0.0, 0.0, -3.37, -13.68, -15.65, -7.0, 4.95, 11.87, 13.27, 13.68, 13.03, 12.09, 12.09, 12.09, -2.45, -2.45, -2.45, -2.45, -3.73, -3.73, -3.73, -3.53, -3.53, -3.53, -3.65, -3.65, -3.47, -3.47, -3.58, -3.47, -3.76, -2.64, -2.64, -2.64, -2.72, -2.72, -2.72, -2.72, -2.56, -1.25, -1.38, -1.38, -1.21, -1.17, -1.17, -1.13, -1.13, -1.2, -1.2, -1.2, -1.2, -1.16, -1.16, -1.11, -1.11, -1.11, -1.07, -0.97, -0.97, -0.97, -0.93, -0.93, 0.0, -0.93, -0.93, -0.98, 0.0, 0.0, 0.0, 0.0, 0.0, 0.0, 0.0, 0.0, 1.67, 3.8, 4.0, 4.96, 2.97, 6.64, 9.83, 9.83, 9.83, 9.83, 9.54, 10.18, 9.6, 8.23, 7.27, 6.17, 7.27, 6.95, 8.8, 10.73, 6.2, 2.28, 1.48, 1.18, 0.0, 0.0, 0.0, -1.4, -1.96, 0.0, 5.09, 8.68, 11.69, 13.18, 12.82, 12.22, 12.22, 12.22, -2.45, -2.45, -3.6, -3.6, -3.6, -3.73, -3.73, -3.41, -3.53, -3.53, -3.65, -3.65, -3.76, -3.76, -3.76, -3.76, -3.76, -3.76, -2.64, -2.64, -2.64, -2.72, -2.72, -2.64, -2.56, -1.38, -1.38, -1.33, -1.21, -1.17, -1.17, -1.13, -1.2, -1.2, -1.2, -1.2, -1.2, -1.16, -1.16, -1.16, -1.11, -1.11, -1.11, -1.07, -0.97, -0.97, -0.93, -0.93, -0.93, -0.93, -0.89, -0.98, 0.0, 0.0, 0.0, 0.0, 0.0, 0.0, 0.0, 0.0, 1.75, 2.06, 2.06, 2.17, 0.0, 6.64, 9.39, 6.64, 9.39, 9.83, 9.83, 11.18, 10.6, 7.9, 6.95, 4.6, 5.7, 7.27, 9.2, 10.73, 5.0, 2.37, 1.48, 1.15, 2.11, 1.98, 1.08, 1.34, 2.66, 3.93, 4.86, 7.92, 11.06, 12.29, 12.29, 11.69, 11.69, 11.69, -3.29, -3.29, -3.73, -3.73, -3.73, -3.73, -3.73, -3.41, -3.41, -3.53, -3.53, -3.65, -3.76, -3.76, -3.76, -3.76, -3.76, -2.56, -2.56, -2.64, -2.64, -2.64, -2.64, -2.64, -1.3, -1.38, -1.38, -1.33, -1.33, -1.29, -1.29, -1.25, -1.2, -1.2, -1.2, -1.16, -1.16, -1.16, -1.16, -1.11, -1.11, -1.11, -1.11, -1.07, -1.07, -0.97, -0.97, -0.93, -0.93, -0.93, -0.98, -0.98, 0.0, 0.0, 0.0, 0.0, 0.0, 0.0, 0.0, 0.0, 0.0, 0.0, 0.0, 0.0, 0.0, 0.0, 0.0, 9.39, 9.39, 9.39, 9.83, 9.83, 9.83, 10.4, 7.27, 4.6, 3.25, 7.27, 9.2, 10.73, 10.0, 2.28, 1.61, 1.26, 2.12, 3.93, 4.99, 5.68, 5.4, 6.74, 6.53, 8.74, 11.29, 11.29, 10.99, 10.18, 10.18, 10.18, -3.29, -3.29, -3.73, -3.73, -3.73, -3.73, -3.73, -3.41, -3.41, -3.53, -3.53, -3.65, -3.76, -3.76, -3.76, -3.76, -3.76, -2.56, -2.56, -2.64, -2.64, -2.64, -2.64, -2.64, -1.3, -1.38, -1.38, -1.33, -1.33, -1.29, -1.29, -1.25, -1.2, -1.2, -1.2, -1.16, -1.16, -1.16, -1.16, -1.11, -1.11, -1.11, -1.11, -1.07, -1.07, -0.97, -0.97, -0.93, -0.93, -0.93, -0.98, -0.98, 0.0, 0.0, 0.0, 0.0, 0.0, 0.0, 0.0, 0.0, 0.0, 0.0, 0.0, 0.0, 0.0, 0.0, 0.0, 9.39, 9.39, 9.39, 9.83, 9.83, 9.83, 10.4, 7.27, 4.6, 3.25, 7.27, 9.2, 10.73, 10.0, 5.0, 3.32, 2.56, 3.33, 5.01, 6.79, 8.17, 8.06, 8.6, 8.48, 10.0, 10.98, 11.77, 10.76, 9.09, 9.09, 9.09]}]